Time,TemperatureF,DewpointF,PressureIn,WindDirection,WindDirectionDegrees,WindSpeedMPH,WindSpeedGustMPH,Humidity,HourlyPrecipIn,Conditions,Clouds,dailyrainin,SoftwareType,DateUTC
2013-02-25 00:00:00,24.8,-6.0,30.26,West,270,1.0,7.0,25,0.00,,,0.01,meteohub,2013-02-25 05:00:00,
2013-02-25 00:01:00,24.8,-6.0,30.26,West,270,1.0,7.0,25,0.00,,,0.01,meteohub,2013-02-25 05:01:00,
2013-02-25 00:05:00,24.8,-6.0,30.26,West,270,1.0,7.0,25,0.00,,,0.00,meteohub,2013-02-25 05:05:00,
2013-02-25 00:06:00,24.8,-6.0,30.26,West,270,1.0,4.0,25,0.00,,,0.00,meteohub,2013-02-25 05:06:00,
2013-02-25 00:07:00,24.8,-6.0,30.26,NW,315,2.0,4.0,25,0.00,,,0.00,meteohub,2013-02-25 05:07:00,
2013-02-25 00:08:00,24.8,-6.0,30.27,West,270,3.0,4.0,25,0.00,,,0.00,meteohub,2013-02-25 05:08:00,
2013-02-25 00:10:00,24.8,-6.0,30.27,NW,315,4.0,4.0,25,0.00,,,0.00,meteohub,2013-02-25 05:10:00,
2013-02-25 00:12:00,24.8,-6.0,30.26,NW,315,2.0,3.0,25,0.00,,,0.00,meteohub,2013-02-25 05:12:00,
2013-02-25 00:13:00,24.8,-6.0,30.26,NW,315,3.0,3.0,25,0.00,,,0.00,meteohub,2013-02-25 05:13:00,
2013-02-25 00:15:00,24.8,-5.3,30.27,NW,315,3.0,3.0,26,0.00,,,0.00,meteohub,2013-02-25 05:15:00,
2013-02-25 00:16:00,24.8,-5.3,30.27,West,270,5.0,6.0,26,0.00,,,0.00,meteohub,2013-02-25 05:16:00,
2013-02-25 00:19:00,24.6,-5.4,30.27,West,270,4.0,6.0,26,0.00,,,0.00,meteohub,2013-02-25 05:19:00,
2013-02-25 00:20:00,24.6,-5.4,30.27,NW,315,4.0,6.0,26,0.00,,,0.00,meteohub,2013-02-25 05:20:00,
2013-02-25 00:21:00,24.6,-5.4,30.27,NW,315,4.0,6.0,26,0.00,,,0.00,meteohub,2013-02-25 05:21:00,
2013-02-25 00:22:00,24.6,-5.4,30.27,NW,315,5.0,6.0,26,0.00,,,0.00,meteohub,2013-02-25 05:22:00,
2013-02-25 00:24:00,24.6,-5.4,30.27,South,180,1.0,6.0,26,0.00,,,0.00,meteohub,2013-02-25 05:24:00,
2013-02-25 00:25:00,24.6,-5.4,30.27,NW,315,2.0,6.0,26,0.00,,,0.00,meteohub,2013-02-25 05:25:00,
2013-02-25 00:26:00,24.6,-5.4,30.27,WSW,248,2.0,6.0,26,0.00,,,0.00,meteohub,2013-02-25 05:26:00,
2013-02-25 00:27:00,24.6,-5.4,30.27,NW,315,8.0,8.0,26,0.00,,,0.00,meteohub,2013-02-25 05:27:00,
2013-02-25 00:30:00,24.6,-5.4,30.27,NW,315,2.0,6.0,26,0.00,,,0.00,meteohub,2013-02-25 05:30:00,
2013-02-25 00:31:00,24.6,-5.4,30.27,WNW,293,3.0,8.0,26,0.00,,,0.00,meteohub,2013-02-25 05:31:00,
2013-02-25 00:33:00,24.6,-4.5,30.27,North,0,2.0,8.0,27,0.00,,,0.00,meteohub,2013-02-25 05:33:00,
2013-02-25 00:35:00,24.6,-4.5,30.27,West,270,1.0,8.0,27,0.00,,,0.00,meteohub,2013-02-25 05:35:00,
2013-02-25 00:36:00,24.6,-4.5,30.27,North,0,2.0,8.0,27,0.00,,,0.00,meteohub,2013-02-25 05:36:00,
2013-02-25 00:38:00,24.6,-4.5,30.27,NW,315,2.0,8.0,27,0.00,,,0.00,meteohub,2013-02-25 05:38:00,
2013-02-25 00:39:00,24.6,-4.5,30.27,NW,315,2.0,8.0,27,0.00,,,0.00,meteohub,2013-02-25 05:39:00,
2013-02-25 00:41:00,24.6,-4.5,30.27,NW,315,2.0,8.0,27,0.00,,,0.00,meteohub,2013-02-25 05:41:00,
2013-02-25 00:44:00,24.6,-4.5,30.27,WSW,248,1.0,8.0,27,0.00,,,0.00,meteohub,2013-02-25 05:44:00,
2013-02-25 00:45:00,24.6,-4.5,30.27,WSW,248,4.0,8.0,27,0.00,,,0.00,meteohub,2013-02-25 05:45:00,
2013-02-25 00:46:00,24.6,-3.8,30.27,WSW,248,2.0,5.0,28,0.00,,,0.00,meteohub,2013-02-25 05:46:00,
2013-02-25 00:49:00,24.6,-3.8,30.27,NW,315,2.0,5.0,28,0.00,,,0.00,meteohub,2013-02-25 05:49:00,
2013-02-25 00:50:00,24.6,-3.8,30.27,NW,315,3.0,5.0,28,0.00,,,0.00,meteohub,2013-02-25 05:50:00,
2013-02-25 00:51:00,24.6,-3.8,30.27,NW,315,2.0,5.0,28,0.00,,,0.00,meteohub,2013-02-25 05:51:00,
2013-02-25 00:52:00,24.6,-3.8,30.27,NW,315,2.0,5.0,28,0.00,,,0.00,meteohub,2013-02-25 05:52:00,
2013-02-25 00:55:00,24.6,-3.8,30.27,NW,315,4.0,5.0,28,0.00,,,0.00,meteohub,2013-02-25 05:55:00,
2013-02-25 00:56:00,24.6,-3.8,30.27,WSW,248,2.0,5.0,28,0.00,,,0.00,meteohub,2013-02-25 05:56:00,
2013-02-25 00:57:00,24.6,-3.8,30.27,WSW,248,2.0,5.0,28,0.00,,,0.00,meteohub,2013-02-25 05:57:00,
2013-02-25 00:58:00,24.6,-3.8,30.27,NW,315,4.0,5.0,28,0.00,,,0.00,meteohub,2013-02-25 05:58:00,
2013-02-25 01:00:00,24.6,-3.8,30.27,WNW,293,2.0,4.0,28,0.00,,,0.00,meteohub,2013-02-25 06:00:00,
2013-02-25 01:01:00,24.6,-3.8,30.27,WNW,293,2.0,4.0,28,0.00,,,0.00,meteohub,2013-02-25 06:01:00,
2013-02-25 01:02:00,24.6,-3.8,30.27,WNW,293,2.0,4.0,28,0.00,,,0.00,meteohub,2013-02-25 06:02:00,
2013-02-25 01:03:00,24.6,-4.5,30.27,NW,315,2.0,4.0,27,0.00,,,0.00,meteohub,2013-02-25 06:03:00,
2013-02-25 01:06:00,24.6,-4.5,30.27,West,270,1.0,4.0,27,0.00,,,0.00,meteohub,2013-02-25 06:06:00,
2013-02-25 01:07:00,24.6,-4.5,30.27,NW,315,4.0,4.0,27,0.00,,,0.00,meteohub,2013-02-25 06:07:00,
2013-02-25 01:11:00,24.6,-4.5,30.27,West,270,2.0,4.0,27,0.00,,,0.00,meteohub,2013-02-25 06:11:00,
2013-02-25 01:12:00,24.6,-4.5,30.27,NW,315,1.0,4.0,27,0.00,,,0.00,meteohub,2013-02-25 06:12:00,
2013-02-25 01:13:00,24.6,-4.5,30.27,NW,315,1.0,4.0,27,0.00,,,0.00,meteohub,2013-02-25 06:13:00,
2013-02-25 01:16:00,24.6,-4.5,30.27,NW,315,4.0,4.0,27,0.00,,,0.00,meteohub,2013-02-25 06:16:00,
2013-02-25 01:17:00,24.6,-4.5,30.27,West,270,2.0,4.0,27,0.00,,,0.00,meteohub,2013-02-25 06:17:00,
2013-02-25 01:18:00,24.6,-4.5,30.27,North,0,2.0,4.0,27,0.00,,,0.00,meteohub,2013-02-25 06:18:00,
2013-02-25 01:22:00,24.6,-4.5,30.27,NW,315,0.0,4.0,27,0.00,,,0.00,meteohub,2013-02-25 06:22:00,
2013-02-25 01:23:00,24.6,-4.5,30.27,NE,45,0.0,4.0,27,0.00,,,0.00,meteohub,2013-02-25 06:23:00,
2013-02-25 01:24:00,24.6,-4.5,30.27,NE,45,0.0,4.0,27,0.00,,,0.00,meteohub,2013-02-25 06:24:00,
2013-02-25 01:28:00,24.6,-5.4,30.27,NW,315,0.0,4.0,26,0.00,,,0.00,meteohub,2013-02-25 06:28:00,
2013-02-25 01:30:00,24.6,-5.4,30.27,West,270,1.0,4.0,26,0.00,,,0.00,meteohub,2013-02-25 06:30:00,
2013-02-25 01:31:00,24.6,-5.4,30.27,West,270,1.0,4.0,26,0.00,,,0.00,meteohub,2013-02-25 06:31:00,
2013-02-25 01:33:00,24.6,-5.4,30.27,NW,315,2.0,4.0,26,0.00,,,0.00,meteohub,2013-02-25 06:33:00,
2013-02-25 01:34:00,24.6,-5.4,30.27,NW,315,2.0,4.0,26,0.00,,,0.00,meteohub,2013-02-25 06:34:00,
2013-02-25 01:36:00,24.6,-5.4,30.27,NW,315,4.0,4.0,26,0.00,,,0.00,meteohub,2013-02-25 06:36:00,
2013-02-25 01:38:00,24.6,-5.4,30.27,WSW,248,2.0,2.0,26,0.00,,,0.00,meteohub,2013-02-25 06:38:00,
2013-02-25 01:39:00,24.6,-5.4,30.27,NW,315,3.0,3.0,26,0.00,,,0.00,meteohub,2013-02-25 06:39:00,
2013-02-25 01:41:00,24.6,-5.4,30.27,WSW,248,1.0,4.0,26,0.00,,,0.00,meteohub,2013-02-25 06:41:00,
2013-02-25 01:44:00,24.6,-5.4,30.27,South,180,1.0,4.0,26,0.00,,,0.00,meteohub,2013-02-25 06:44:00,
2013-02-25 01:45:00,24.8,-5.3,30.27,NW,315,3.0,4.0,26,0.00,,,0.00,meteohub,2013-02-25 06:45:00,
2013-02-25 01:47:00,24.8,-5.3,30.27,NW,315,3.0,5.0,26,0.00,,,0.00,meteohub,2013-02-25 06:47:00,
2013-02-25 01:49:00,24.8,-5.3,30.27,NW,315,3.0,5.0,26,0.00,,,0.00,meteohub,2013-02-25 06:49:00,
2013-02-25 01:50:00,24.8,-5.3,30.28,NW,315,3.0,5.0,26,0.00,,,0.00,meteohub,2013-02-25 06:50:00,
2013-02-25 01:52:00,24.8,-5.3,30.28,West,270,3.0,5.0,26,0.00,,,0.00,meteohub,2013-02-25 06:52:00,
2013-02-25 01:54:00,24.8,-5.3,30.27,NW,315,2.0,5.0,26,0.00,,,0.00,meteohub,2013-02-25 06:54:00,
2013-02-25 01:55:00,24.8,-5.3,30.28,NW,315,1.0,5.0,26,0.00,,,0.00,meteohub,2013-02-25 06:55:00,
2013-02-25 01:57:00,24.8,-5.3,30.28,North,0,1.0,5.0,26,0.00,,,0.00,meteohub,2013-02-25 06:57:00,
2013-02-25 01:59:00,24.8,-5.3,30.28,NW,315,4.0,5.0,26,0.00,,,0.00,meteohub,2013-02-25 06:59:00,
2013-02-25 02:01:00,24.8,-5.3,30.28,NW,315,4.0,4.0,26,0.00,,,0.00,meteohub,2013-02-25 07:01:00,
2013-02-25 02:03:00,24.8,-5.3,30.27,WSW,248,2.0,3.0,26,0.00,,,0.00,meteohub,2013-02-25 07:03:00,
2013-02-25 02:04:00,24.8,-5.3,30.27,West,270,4.0,4.0,26,0.00,,,0.00,meteohub,2013-02-25 07:04:00,
2013-02-25 02:07:00,24.8,-5.3,30.27,West,270,5.0,5.0,26,0.00,,,0.00,meteohub,2013-02-25 07:07:00,
2013-02-25 02:08:00,24.8,-5.3,30.27,West,270,4.0,4.0,26,0.00,,,0.00,meteohub,2013-02-25 07:08:00,
2013-02-25 02:10:00,24.8,-5.3,30.27,NW,315,4.0,8.0,26,0.00,,,0.00,meteohub,2013-02-25 07:10:00,
2013-02-25 02:12:00,24.8,-5.3,30.27,West,270,1.0,8.0,26,0.00,,,0.00,meteohub,2013-02-25 07:12:00,
2013-02-25 02:14:00,24.6,-5.4,30.27,West,270,2.0,8.0,26,0.00,,,0.00,meteohub,2013-02-25 07:14:00,
2013-02-25 02:16:00,24.8,-5.3,30.27,West,270,1.0,8.0,26,0.00,,,0.00,meteohub,2013-02-25 07:16:00,
2013-02-25 02:17:00,24.8,-5.3,30.27,West,270,1.0,8.0,26,0.00,,,0.00,meteohub,2013-02-25 07:17:00,
2013-02-25 02:19:00,24.8,-5.3,30.27,West,270,1.0,8.0,26,0.00,,,0.00,meteohub,2013-02-25 07:19:00,
2013-02-25 02:21:00,24.8,-5.3,30.27,West,270,1.0,8.0,26,0.00,,,0.00,meteohub,2013-02-25 07:21:00,
2013-02-25 02:23:00,24.6,-5.4,30.28,WSW,248,2.0,8.0,26,0.00,,,0.00,meteohub,2013-02-25 07:23:00,
2013-02-25 02:25:00,24.6,-5.4,30.28,North,0,2.0,8.0,26,0.00,,,0.00,meteohub,2013-02-25 07:25:00,
2013-02-25 02:26:00,24.6,-5.4,30.28,NW,315,2.0,4.0,26,0.00,,,0.00,meteohub,2013-02-25 07:26:00,
2013-02-25 02:28:00,24.6,-5.4,30.28,NW,315,2.0,4.0,26,0.00,,,0.00,meteohub,2013-02-25 07:28:00,
2013-02-25 02:30:00,24.6,-5.4,30.27,West,270,2.0,3.0,26,0.00,,,0.00,meteohub,2013-02-25 07:30:00,
2013-02-25 02:32:00,24.6,-5.4,30.27,WSW,248,2.0,3.0,26,0.00,,,0.00,meteohub,2013-02-25 07:32:00,
2013-02-25 02:33:00,24.6,-5.4,30.27,NW,315,1.0,3.0,26,0.00,,,0.00,meteohub,2013-02-25 07:33:00,
2013-02-25 02:34:00,24.6,-4.5,30.28,South,180,2.0,3.0,27,0.00,,,0.00,meteohub,2013-02-25 07:34:00,
2013-02-25 02:36:00,24.6,-4.5,30.28,WSW,248,1.0,3.0,27,0.00,,,0.00,meteohub,2013-02-25 07:36:00,
2013-02-25 02:38:00,24.6,-5.4,30.28,NW,315,2.0,3.0,26,0.00,,,0.00,meteohub,2013-02-25 07:38:00,
2013-02-25 02:41:00,24.6,-4.5,30.27,West,270,2.0,4.0,27,0.00,,,0.00,meteohub,2013-02-25 07:41:00,
2013-02-25 02:43:00,24.6,-4.5,30.27,West,270,1.0,4.0,27,0.00,,,0.00,meteohub,2013-02-25 07:43:00,
2013-02-25 02:44:00,24.6,-4.5,30.27,NW,315,1.0,4.0,27,0.00,,,0.00,meteohub,2013-02-25 07:44:00,
2013-02-25 02:46:00,24.6,-4.5,30.28,North,0,1.0,4.0,27,0.00,,,0.00,meteohub,2013-02-25 07:46:00,
2013-02-25 02:48:00,24.6,-4.5,30.28,West,270,2.0,4.0,27,0.00,,,0.00,meteohub,2013-02-25 07:48:00,
2013-02-25 02:49:00,24.6,-4.5,30.28,West,270,1.0,4.0,27,0.00,,,0.00,meteohub,2013-02-25 07:49:00,
2013-02-25 02:51:00,24.6,-4.5,30.28,South,180,2.0,4.0,27,0.00,,,0.00,meteohub,2013-02-25 07:51:00,
2013-02-25 02:53:00,24.6,-4.5,30.28,NW,315,4.0,4.0,27,0.00,,,0.00,meteohub,2013-02-25 07:53:00,
2013-02-25 02:54:00,24.6,-4.5,30.28,WSW,248,4.0,4.0,27,0.00,,,0.00,meteohub,2013-02-25 07:54:00,
2013-02-25 02:55:00,24.6,-3.8,30.28,WSW,248,1.0,4.0,28,0.00,,,0.00,meteohub,2013-02-25 07:55:00,
2013-02-25 02:56:00,24.6,-3.8,30.28,WSW,248,1.0,4.0,28,0.00,,,0.00,meteohub,2013-02-25 07:56:00,
2013-02-25 03:00:00,24.4,-4.0,30.28,West,270,1.0,4.0,28,0.00,,,0.00,meteohub,2013-02-25 08:00:00,
2013-02-25 03:01:00,24.4,-4.0,30.28,West,270,1.0,4.0,28,0.00,,,0.00,meteohub,2013-02-25 08:01:00,
2013-02-25 03:02:00,24.4,-4.0,30.28,WSW,248,1.0,4.0,28,0.00,,,0.00,meteohub,2013-02-25 08:02:00,
2013-02-25 03:05:00,24.4,-4.0,30.28,West,270,0.0,4.0,28,0.00,,,0.00,meteohub,2013-02-25 08:05:00,
2013-02-25 03:06:00,24.4,-4.0,30.28,NW,315,3.0,4.0,28,0.00,,,0.00,meteohub,2013-02-25 08:06:00,
2013-02-25 03:08:00,24.4,-4.0,30.28,WSW,248,2.0,4.0,28,0.00,,,0.00,meteohub,2013-02-25 08:08:00,
2013-02-25 03:10:00,24.4,-4.0,30.28,NW,315,0.0,3.0,28,0.00,,,0.00,meteohub,2013-02-25 08:10:00,
2013-02-25 03:11:00,24.4,-4.0,30.28,NW,315,1.0,3.0,28,0.00,,,0.00,meteohub,2013-02-25 08:11:00,
2013-02-25 03:13:00,24.4,-4.0,30.28,West,270,3.0,3.0,28,0.00,,,0.00,meteohub,2013-02-25 08:13:00,
2013-02-25 03:15:00,24.4,-4.0,30.28,West,270,1.0,3.0,28,0.00,,,0.00,meteohub,2013-02-25 08:15:00,
2013-02-25 03:18:00,24.4,-4.0,30.28,West,270,1.0,3.0,28,0.00,,,0.00,meteohub,2013-02-25 08:18:00,
2013-02-25 03:19:00,24.4,-4.0,30.28,West,270,1.0,3.0,28,0.00,,,0.00,meteohub,2013-02-25 08:19:00,
2013-02-25 03:21:00,24.4,-4.0,30.28,West,270,1.0,3.0,28,0.00,,,0.00,meteohub,2013-02-25 08:21:00,
2013-02-25 03:23:00,24.4,-4.0,30.28,NW,315,2.0,3.0,28,0.00,,,0.00,meteohub,2013-02-25 08:23:00,
2013-02-25 03:24:00,24.4,-4.0,30.28,West,270,0.0,3.0,28,0.00,,,0.00,meteohub,2013-02-25 08:24:00,
2013-02-25 03:25:00,24.4,-4.0,30.28,West,270,0.0,3.0,28,0.00,,,0.00,meteohub,2013-02-25 08:25:00,
2013-02-25 03:26:00,24.4,-4.0,30.28,West,270,2.0,3.0,28,0.00,,,0.00,meteohub,2013-02-25 08:26:00,
2013-02-25 03:28:00,24.4,-4.0,30.28,NW,315,2.0,3.0,28,0.00,,,0.00,meteohub,2013-02-25 08:28:00,
2013-02-25 03:29:00,24.4,-4.0,30.28,West,270,1.0,3.0,28,0.00,,,0.00,meteohub,2013-02-25 08:29:00,
2013-02-25 03:31:00,24.4,-3.3,30.28,WSW,248,2.0,4.0,29,0.00,,,0.00,meteohub,2013-02-25 08:31:00,
2013-02-25 03:33:00,24.4,-4.0,30.28,West,270,3.0,4.0,28,0.00,,,0.00,meteohub,2013-02-25 08:33:00,
2013-02-25 03:35:00,24.4,-3.3,30.28,NW,315,1.0,4.0,29,0.00,,,0.00,meteohub,2013-02-25 08:35:00,
2013-02-25 03:37:00,24.4,-3.3,30.28,West,270,1.0,4.0,29,0.00,,,0.00,meteohub,2013-02-25 08:37:00,
2013-02-25 03:39:00,24.3,-3.5,30.28,West,270,2.0,4.0,29,0.00,,,0.00,meteohub,2013-02-25 08:39:00,
2013-02-25 03:40:00,24.3,-3.5,30.28,North,0,2.0,4.0,29,0.00,,,0.00,meteohub,2013-02-25 08:40:00,
2013-02-25 03:42:00,24.3,-3.5,30.28,NW,315,2.0,4.0,29,0.00,,,0.00,meteohub,2013-02-25 08:42:00,
2013-02-25 03:43:00,24.3,-3.5,30.28,NW,315,1.0,4.0,29,0.00,,,0.00,meteohub,2013-02-25 08:43:00,
2013-02-25 03:44:00,24.3,-3.5,30.28,NW,315,2.0,4.0,29,0.00,,,0.00,meteohub,2013-02-25 08:44:00,
2013-02-25 03:46:00,24.3,-3.5,30.28,NW,315,1.0,4.0,29,0.00,,,0.00,meteohub,2013-02-25 08:46:00,
2013-02-25 03:48:00,24.3,-3.5,30.28,NE,45,2.0,4.0,29,0.00,,,0.00,meteohub,2013-02-25 08:48:00,
2013-02-25 03:50:00,24.3,-2.7,30.28,West,270,2.0,4.0,30,0.00,,,0.00,meteohub,2013-02-25 08:50:00,
2013-02-25 03:51:00,24.3,-2.7,30.27,NW,315,2.0,2.0,30,0.00,,,0.00,meteohub,2013-02-25 08:51:00,
2013-02-25 03:55:00,24.3,-2.7,30.28,NW,315,2.0,2.0,30,0.00,,,0.00,meteohub,2013-02-25 08:55:00,
2013-02-25 03:56:00,24.3,-2.7,30.28,NW,315,1.0,2.0,30,0.00,,,0.00,meteohub,2013-02-25 08:56:00,
2013-02-25 04:00:00,24.1,-2.9,30.28,West,270,2.0,2.0,30,0.00,,,0.00,meteohub,2013-02-25 09:00:00,
2013-02-25 04:01:00,24.1,-2.9,30.28,West,270,2.0,2.0,30,0.00,,,0.00,meteohub,2013-02-25 09:01:00,
2013-02-25 04:02:00,24.1,-2.9,30.28,West,270,2.0,2.0,30,0.00,,,0.00,meteohub,2013-02-25 09:02:00,
2013-02-25 04:06:00,24.1,-2.9,30.27,West,270,2.0,2.0,30,0.00,,,0.00,meteohub,2013-02-25 09:06:00,
2013-02-25 04:07:00,24.1,-2.9,30.28,NW,315,1.0,2.0,30,0.00,,,0.00,meteohub,2013-02-25 09:07:00,
2013-02-25 04:11:00,24.1,-2.2,30.28,NW,315,1.0,2.0,31,0.00,,,0.00,meteohub,2013-02-25 09:11:00,
2013-02-25 04:12:00,24.1,-2.2,30.28,NW,315,0.0,2.0,31,0.00,,,0.00,meteohub,2013-02-25 09:12:00,
2013-02-25 04:13:00,23.9,-2.4,30.28,NW,315,1.0,2.0,31,0.00,,,0.00,meteohub,2013-02-25 09:13:00,
2013-02-25 04:16:00,23.9,-2.4,30.27,West,270,2.0,4.0,31,0.00,,,0.00,meteohub,2013-02-25 09:16:00,
2013-02-25 04:17:00,23.9,-2.4,30.27,NW,315,0.0,4.0,31,0.00,,,0.00,meteohub,2013-02-25 09:17:00,
2013-02-25 04:18:00,23.9,-2.4,30.28,NW,315,0.0,4.0,31,0.00,,,0.00,meteohub,2013-02-25 09:18:00,
2013-02-25 04:22:00,23.9,-2.4,30.27,West,270,0.0,4.0,31,0.00,,,0.00,meteohub,2013-02-25 09:22:00,
2013-02-25 04:23:00,23.9,-1.7,30.27,NW,315,0.0,4.0,32,0.00,,,0.00,meteohub,2013-02-25 09:23:00,
2013-02-25 04:24:00,23.9,-1.7,30.27,North,0,0.0,4.0,32,0.00,,,0.00,meteohub,2013-02-25 09:24:00,
2013-02-25 04:28:00,23.7,-1.8,30.27,West,270,0.0,4.0,32,0.00,,,0.00,meteohub,2013-02-25 09:28:00,
2013-02-25 04:29:00,23.7,-1.8,30.27,North,0,0.0,4.0,32,0.00,,,0.00,meteohub,2013-02-25 09:29:00,
2013-02-25 04:34:00,23.5,-2.0,30.28,NW,315,0.0,2.0,32,0.00,,,0.00,meteohub,2013-02-25 09:34:00,
2013-02-25 04:35:00,23.5,-2.0,30.28,North,0,0.0,2.0,32,0.00,,,0.00,meteohub,2013-02-25 09:35:00,
2013-02-25 04:39:00,23.5,-1.3,30.28,North,0,0.0,0.0,33,0.00,,,0.00,meteohub,2013-02-25 09:39:00,
2013-02-25 04:40:00,23.5,-1.3,30.27,North,0,0.0,0.0,33,0.00,,,0.00,meteohub,2013-02-25 09:40:00,
2013-02-25 04:44:00,23.5,-1.3,30.28,North,0,0.0,0.0,33,0.00,,,0.00,meteohub,2013-02-25 09:44:00,
2013-02-25 04:45:00,23.5,-1.3,30.28,North,0,0.0,0.0,33,0.00,,,0.00,meteohub,2013-02-25 09:45:00,
2013-02-25 04:46:00,23.5,-1.3,30.28,North,0,0.0,0.0,33,0.00,,,0.00,meteohub,2013-02-25 09:46:00,
2013-02-25 04:47:00,23.5,-1.3,30.28,North,0,0.0,0.0,33,0.00,,,0.00,meteohub,2013-02-25 09:47:00,
2013-02-25 04:50:00,23.5,-1.3,30.28,North,0,0.0,0.0,33,0.00,,,0.00,meteohub,2013-02-25 09:50:00,
2013-02-25 04:52:00,23.5,-0.8,30.28,North,0,1.0,0.0,34,0.00,,,0.00,meteohub,2013-02-25 09:52:00,
2013-02-25 04:56:00,23.5,-0.8,30.28,NW,315,2.0,0.0,34,0.00,,,0.00,meteohub,2013-02-25 09:56:00,
2013-02-25 04:57:00,23.5,-0.8,30.28,NW,315,0.0,2.0,34,0.00,,,0.00,meteohub,2013-02-25 09:57:00,
2013-02-25 04:58:00,23.5,-0.8,30.29,NW,315,0.0,2.0,34,0.00,,,0.00,meteohub,2013-02-25 09:58:00,
2013-02-25 05:01:00,23.5,-0.8,30.29,NW,315,1.0,2.0,34,0.00,,,0.00,meteohub,2013-02-25 10:01:00,
2013-02-25 05:02:00,23.5,-0.8,30.29,NW,315,1.0,2.0,34,0.00,,,0.00,meteohub,2013-02-25 10:02:00,
2013-02-25 05:03:00,23.5,-0.8,30.28,NW,315,1.0,2.0,34,0.00,,,0.00,meteohub,2013-02-25 10:03:00,
2013-02-25 05:07:00,23.5,-0.8,30.29,NW,315,1.0,2.0,34,0.00,,,0.00,meteohub,2013-02-25 10:07:00,
2013-02-25 05:08:00,23.7,0.1,30.29,NW,315,1.0,2.0,35,0.00,,,0.00,meteohub,2013-02-25 10:08:00,
2013-02-25 05:09:00,23.7,0.1,30.29,North,0,2.0,2.0,35,0.00,,,0.00,meteohub,2013-02-25 10:09:00,
2013-02-25 05:12:00,23.7,0.1,30.29,North,0,1.0,2.0,35,0.00,,,0.00,meteohub,2013-02-25 10:12:00,
2013-02-25 05:13:00,23.7,0.1,30.29,North,0,2.0,2.0,35,0.00,,,0.00,meteohub,2013-02-25 10:13:00,
2013-02-25 05:14:00,23.7,0.1,30.28,North,0,1.0,2.0,35,0.00,,,0.00,meteohub,2013-02-25 10:14:00,
2013-02-25 05:17:00,23.7,0.7,30.28,North,0,1.0,2.0,36,0.00,,,0.00,meteohub,2013-02-25 10:17:00,
2013-02-25 05:18:00,23.7,0.7,30.28,North,0,1.0,2.0,36,0.00,,,0.00,meteohub,2013-02-25 10:18:00,
2013-02-25 05:20:00,23.7,0.7,30.28,North,0,2.0,2.0,36,0.00,,,0.00,meteohub,2013-02-25 10:20:00,
2013-02-25 05:21:00,23.7,0.7,30.28,North,0,2.0,2.0,36,0.00,,,0.00,meteohub,2013-02-25 10:21:00,
2013-02-25 05:24:00,23.9,0.9,30.28,North,0,1.0,2.0,36,0.00,,,0.00,meteohub,2013-02-25 10:24:00,
2013-02-25 05:25:00,23.9,0.9,30.28,NE,45,1.0,2.0,36,0.00,,,0.00,meteohub,2013-02-25 10:25:00,
2013-02-25 05:26:00,23.9,0.9,30.28,North,0,3.0,4.0,36,0.00,,,0.00,meteohub,2013-02-25 10:26:00,
2013-02-25 05:28:00,23.9,0.9,30.28,NE,45,2.0,4.0,36,0.00,,,0.00,meteohub,2013-02-25 10:28:00,
2013-02-25 05:29:00,23.9,0.9,30.28,NE,45,2.0,4.0,36,0.00,,,0.00,meteohub,2013-02-25 10:29:00,
2013-02-25 05:31:00,23.9,1.4,30.28,North,0,2.0,4.0,37,0.00,,,0.00,meteohub,2013-02-25 10:31:00,
2013-02-25 05:33:00,23.9,1.4,30.28,East,90,1.0,4.0,37,0.00,,,0.00,meteohub,2013-02-25 10:33:00,
2013-02-25 05:34:00,23.9,1.4,30.28,North,0,2.0,4.0,37,0.00,,,0.00,meteohub,2013-02-25 10:34:00,
2013-02-25 05:36:00,23.9,1.4,30.28,NE,45,3.0,4.0,37,0.00,,,0.00,meteohub,2013-02-25 10:36:00,
2013-02-25 05:38:00,23.9,1.4,30.28,West,270,1.0,4.0,37,0.00,,,0.00,meteohub,2013-02-25 10:38:00,
2013-02-25 05:40:00,23.9,1.4,30.29,NW,315,1.0,4.0,37,0.00,,,0.00,meteohub,2013-02-25 10:40:00,
2013-02-25 05:42:00,23.9,1.4,30.29,WSW,248,0.0,4.0,37,0.00,,,0.00,meteohub,2013-02-25 10:42:00,
2013-02-25 05:44:00,23.9,1.4,30.29,West,270,1.0,4.0,37,0.00,,,0.00,meteohub,2013-02-25 10:44:00,
2013-02-25 05:45:00,23.9,1.4,30.29,WSW,248,2.0,4.0,37,0.00,,,0.00,meteohub,2013-02-25 10:45:00,
2013-02-25 05:48:00,23.9,1.4,30.30,North,0,0.0,4.0,37,0.00,,,0.00,meteohub,2013-02-25 10:48:00,
2013-02-25 05:49:00,23.9,1.4,30.30,West,270,2.0,4.0,37,0.00,,,0.00,meteohub,2013-02-25 10:49:00,
2013-02-25 05:51:00,24.1,1.6,30.30,WSW,248,1.0,3.0,37,0.00,,,0.00,meteohub,2013-02-25 10:51:00,
2013-02-25 05:54:00,24.1,2.1,30.30,West,270,0.0,3.0,38,0.00,,,0.00,meteohub,2013-02-25 10:54:00,
2013-02-25 05:56:00,24.1,2.1,30.31,WSW,248,2.0,2.0,38,0.00,,,0.00,meteohub,2013-02-25 10:56:00,
2013-02-25 05:57:00,24.1,2.1,30.31,West,270,2.0,2.0,38,0.00,,,0.00,meteohub,2013-02-25 10:57:00,
2013-02-25 06:00:00,24.1,2.1,30.30,WSW,248,2.0,2.0,38,0.00,,,0.00,meteohub,2013-02-25 11:00:00,
2013-02-25 06:02:00,24.1,2.1,30.30,WSW,248,2.0,4.0,38,0.00,,,0.00,meteohub,2013-02-25 11:02:00,
2013-02-25 06:03:00,24.1,2.1,30.30,WSW,248,2.0,4.0,38,0.00,,,0.00,meteohub,2013-02-25 11:03:00,
2013-02-25 06:05:00,24.1,2.1,30.30,WSW,248,2.0,4.0,38,0.00,,,0.00,meteohub,2013-02-25 11:05:00,
2013-02-25 06:06:00,24.1,2.1,30.30,WSW,248,2.0,4.0,38,0.00,,,0.00,meteohub,2013-02-25 11:06:00,
2013-02-25 06:08:00,24.1,1.6,30.31,WSW,248,1.0,4.0,37,0.00,,,0.00,meteohub,2013-02-25 11:08:00,
2013-02-25 06:09:00,23.9,1.9,30.31,WSW,248,0.0,4.0,38,0.00,,,0.00,meteohub,2013-02-25 11:09:00,
2013-02-25 06:11:00,23.9,1.4,30.31,NW,315,1.0,4.0,37,0.00,,,0.00,meteohub,2013-02-25 11:11:00,
2013-02-25 06:13:00,23.7,1.2,30.31,NW,315,0.0,4.0,37,0.00,,,0.00,meteohub,2013-02-25 11:13:00,
2013-02-25 06:14:00,23.7,1.2,30.31,WSW,248,0.0,4.0,37,0.00,,,0.00,meteohub,2013-02-25 11:14:00,
2013-02-25 06:16:00,23.7,1.2,30.31,WSW,248,0.0,2.0,37,0.00,,,0.00,meteohub,2013-02-25 11:16:00,
2013-02-25 06:17:00,23.7,1.2,30.31,WSW,248,0.0,2.0,37,0.00,,,0.00,meteohub,2013-02-25 11:17:00,
2013-02-25 06:19:00,23.5,1.0,30.31,WSW,248,0.0,2.0,37,0.00,,,0.00,meteohub,2013-02-25 11:19:00,
2013-02-25 06:22:00,23.4,0.9,30.31,WSW,248,0.0,2.0,37,0.00,,,0.00,meteohub,2013-02-25 11:22:00,
2013-02-25 06:23:00,23.4,0.9,30.31,WSW,248,0.0,2.0,37,0.00,,,0.00,meteohub,2013-02-25 11:23:00,
2013-02-25 06:24:00,23.2,0.7,30.32,WSW,248,0.0,2.0,37,0.00,,,0.00,meteohub,2013-02-25 11:24:00,
2013-02-25 06:25:00,23.2,0.7,30.32,WSW,248,0.0,2.0,37,0.00,,,0.00,meteohub,2013-02-25 11:25:00,
2013-02-25 06:27:00,23.0,0.7,30.32,WSW,248,1.0,1.0,37,0.00,,,0.00,meteohub,2013-02-25 11:27:00,
2013-02-25 06:28:00,23.0,0.0,30.32,WSW,248,0.0,1.0,36,0.00,,,0.00,meteohub,2013-02-25 11:28:00,
2013-02-25 06:30:00,22.8,-0.2,30.32,WSW,248,0.0,1.0,36,0.00,,,0.00,meteohub,2013-02-25 11:30:00,
2013-02-25 06:32:00,22.6,-0.2,30.32,WSW,248,0.0,1.0,36,0.00,,,0.00,meteohub,2013-02-25 11:32:00,
2013-02-25 06:33:00,22.5,-0.4,30.32,WSW,248,0.0,1.0,36,0.00,,,0.00,meteohub,2013-02-25 11:33:00,
2013-02-25 06:36:00,22.3,-0.6,30.31,North,0,0.0,1.0,36,0.00,,,0.00,meteohub,2013-02-25 11:36:00,
2013-02-25 06:38:00,22.1,-0.8,30.31,NW,315,1.0,1.0,36,0.00,,,0.00,meteohub,2013-02-25 11:38:00,
2013-02-25 06:39:00,22.1,-0.8,30.31,NE,45,1.0,1.0,36,0.00,,,0.00,meteohub,2013-02-25 11:39:00,
2013-02-25 06:42:00,21.9,-0.4,30.31,NE,45,0.0,1.0,37,0.00,,,0.00,meteohub,2013-02-25 11:42:00,
2013-02-25 06:43:00,21.9,-0.9,30.31,NE,45,0.0,1.0,36,0.00,,,0.00,meteohub,2013-02-25 11:43:00,
2013-02-25 06:44:00,21.9,-0.9,30.31,NE,45,0.0,1.0,36,0.00,,,0.00,meteohub,2013-02-25 11:44:00,
2013-02-25 06:48:00,21.7,-1.1,30.31,NE,45,0.0,1.0,36,0.00,,,0.00,meteohub,2013-02-25 11:48:00,
2013-02-25 06:49:00,21.6,-1.3,30.31,NE,45,0.0,1.0,36,0.00,,,0.00,meteohub,2013-02-25 11:49:00,
2013-02-25 06:53:00,21.6,-1.3,30.31,NE,45,0.0,1.0,36,0.00,,,0.00,meteohub,2013-02-25 11:53:00,
2013-02-25 06:54:00,21.6,-1.3,30.31,NE,45,0.0,1.0,36,0.00,,,0.00,meteohub,2013-02-25 11:54:00,
2013-02-25 06:55:00,21.6,-1.3,30.31,NE,45,0.0,1.0,36,0.00,,,0.00,meteohub,2013-02-25 11:55:00,
2013-02-25 06:59:00,21.6,-1.3,30.31,NE,45,0.0,0.0,36,0.00,,,0.00,meteohub,2013-02-25 11:59:00,
2013-02-25 07:00:00,21.6,-1.3,30.32,NE,45,0.0,0.0,36,0.00,,,0.00,meteohub,2013-02-25 12:00:00,
2013-02-25 07:01:00,21.6,-1.3,30.32,NE,45,0.0,0.0,36,0.00,,,0.00,meteohub,2013-02-25 12:01:00,
2013-02-25 07:04:00,21.6,-1.3,30.32,NE,45,0.0,0.0,36,0.00,,,0.00,meteohub,2013-02-25 12:04:00,
2013-02-25 07:05:00,21.6,-1.3,30.32,NE,45,0.0,0.0,36,0.00,,,0.00,meteohub,2013-02-25 12:05:00,
2013-02-25 07:06:00,21.6,-1.3,30.31,NE,45,0.0,0.0,36,0.00,,,0.00,meteohub,2013-02-25 12:06:00,
2013-02-25 07:10:00,21.4,-0.9,30.31,NE,45,0.0,0.0,37,0.00,,,0.00,meteohub,2013-02-25 12:10:00,
2013-02-25 07:11:00,21.4,-0.9,30.31,NE,45,0.0,0.0,37,0.00,,,0.00,meteohub,2013-02-25 12:11:00,
2013-02-25 07:15:00,21.6,-0.8,30.31,NE,45,0.0,0.0,37,0.00,,,0.00,meteohub,2013-02-25 12:15:00,
2013-02-25 07:16:00,21.6,-0.8,30.31,NE,45,0.0,0.0,37,0.00,,,0.00,meteohub,2013-02-25 12:16:00,
2013-02-25 07:17:00,21.6,-0.8,30.31,NE,45,0.0,0.0,37,0.00,,,0.00,meteohub,2013-02-25 12:17:00,
2013-02-25 07:20:00,21.7,0.0,30.31,NW,315,1.0,0.0,38,0.00,,,0.00,meteohub,2013-02-25 12:20:00,
2013-02-25 07:21:00,21.7,0.0,30.31,NW,315,1.0,0.0,38,0.00,,,0.00,meteohub,2013-02-25 12:21:00,
2013-02-25 07:23:00,21.7,0.0,30.32,NW,315,0.0,0.0,38,0.00,,,0.00,meteohub,2013-02-25 12:23:00,
2013-02-25 07:25:00,21.9,0.1,30.32,North,0,0.0,1.0,38,0.00,,,0.00,meteohub,2013-02-25 12:25:00,
2013-02-25 07:26:00,21.9,0.1,30.32,NE,45,0.0,1.0,38,0.00,,,0.00,meteohub,2013-02-25 12:26:00,
2013-02-25 07:28:00,21.9,0.1,30.32,West,270,0.0,1.0,38,0.00,,,0.00,meteohub,2013-02-25 12:28:00,
2013-02-25 07:31:00,22.1,0.3,30.32,North,0,0.0,1.0,38,0.00,,,0.00,meteohub,2013-02-25 12:31:00,
2013-02-25 07:34:00,22.3,0.5,30.32,East,90,0.0,1.0,38,0.00,,,0.00,meteohub,2013-02-25 12:34:00,
2013-02-25 07:36:00,22.5,0.7,30.31,East,90,0.0,1.0,38,0.00,,,0.00,meteohub,2013-02-25 12:36:00,
2013-02-25 07:37:00,22.5,0.7,30.32,North,0,0.0,1.0,38,0.00,,,0.00,meteohub,2013-02-25 12:37:00,
2013-02-25 07:39:00,22.6,0.9,30.32,NW,315,1.0,1.0,38,0.00,,,0.00,meteohub,2013-02-25 12:39:00,
2013-02-25 07:41:00,22.8,1.0,30.32,NW,315,1.0,0.0,38,0.00,,,0.00,meteohub,2013-02-25 12:41:00,
2013-02-25 07:42:00,23.0,1.8,30.32,West,270,0.0,0.0,39,0.00,,,0.00,meteohub,2013-02-25 12:42:00,
2013-02-25 07:45:00,23.2,1.9,30.32,NW,315,0.0,0.0,39,0.00,,,0.00,meteohub,2013-02-25 12:45:00,
2013-02-25 07:47:00,23.4,2.1,30.32,NW,315,0.0,1.0,39,0.00,,,0.00,meteohub,2013-02-25 12:47:00,
2013-02-25 07:50:00,23.5,2.3,30.33,NW,315,0.0,1.0,39,0.00,,,0.00,meteohub,2013-02-25 12:50:00,
2013-02-25 07:51:00,23.7,2.3,30.32,NW,315,0.0,1.0,39,0.00,,,0.00,meteohub,2013-02-25 12:51:00,
2013-02-25 07:53:00,23.7,2.3,30.33,NW,315,0.0,1.0,39,0.00,,,0.00,meteohub,2013-02-25 12:53:00,
2013-02-25 07:56:00,23.9,2.5,30.33,North,0,1.0,2.0,39,0.00,,,0.00,meteohub,2013-02-25 12:56:00,
2013-02-25 07:57:00,24.1,2.7,30.33,NE,45,2.0,2.0,39,0.00,,,0.00,meteohub,2013-02-25 12:57:00,
2013-02-25 07:59:00,24.1,2.7,30.33,NE,45,0.0,2.0,39,0.00,,,0.00,meteohub,2013-02-25 12:59:00,
2013-02-25 08:01:00,24.3,2.8,30.33,NE,45,0.0,2.0,39,0.00,,,0.00,meteohub,2013-02-25 13:01:00,
2013-02-25 08:02:00,24.3,2.8,30.33,West,270,1.0,2.0,39,0.00,,,0.00,meteohub,2013-02-25 13:02:00,
2013-02-25 08:03:00,24.4,3.0,30.33,West,270,1.0,2.0,39,0.00,,,0.00,meteohub,2013-02-25 13:03:00,
2013-02-25 08:04:00,24.4,3.0,30.33,West,270,1.0,2.0,39,0.00,,,0.00,meteohub,2013-02-25 13:04:00,
2013-02-25 08:07:00,24.4,3.0,30.34,NW,315,1.0,2.0,39,0.00,,,0.00,meteohub,2013-02-25 13:07:00,
2013-02-25 08:09:00,24.6,3.2,30.34,NW,315,2.0,2.0,39,0.00,,,0.00,meteohub,2013-02-25 13:09:00,
2013-02-25 08:10:00,24.6,3.2,30.34,NW,315,2.0,2.0,39,0.00,,,0.00,meteohub,2013-02-25 13:10:00,
2013-02-25 08:11:00,24.8,3.4,30.34,NW,315,2.0,2.0,39,0.00,,,0.00,meteohub,2013-02-25 13:11:00,
2013-02-25 08:14:00,25.0,3.0,30.33,NW,315,2.0,2.0,38,0.00,,,0.00,meteohub,2013-02-25 13:14:00,
2013-02-25 08:16:00,25.0,3.0,30.33,NW,315,2.0,2.0,38,0.00,,,0.00,meteohub,2013-02-25 13:16:00,
2013-02-25 08:17:00,25.2,3.2,30.33,North,0,1.0,2.0,38,0.00,,,0.00,meteohub,2013-02-25 13:17:00,
2013-02-25 08:19:00,25.2,3.2,30.34,NW,315,3.0,3.0,38,0.00,,,0.00,meteohub,2013-02-25 13:19:00,
2013-02-25 08:21:00,25.3,3.2,30.34,NW,315,2.0,4.0,38,0.00,,,0.00,meteohub,2013-02-25 13:21:00,
2013-02-25 08:22:00,25.3,3.2,30.34,North,0,2.0,4.0,38,0.00,,,0.00,meteohub,2013-02-25 13:22:00,
2013-02-25 08:23:00,25.3,3.2,30.34,West,270,1.0,4.0,38,0.00,,,0.00,meteohub,2013-02-25 13:23:00,
2013-02-25 08:24:00,25.5,2.8,30.34,NW,315,0.0,4.0,37,0.00,,,0.00,meteohub,2013-02-25 13:24:00,
2013-02-25 08:27:00,25.9,3.2,30.34,NW,315,1.0,4.0,37,0.00,,,0.00,meteohub,2013-02-25 13:27:00,
2013-02-25 08:28:00,26.1,3.4,30.34,North,0,3.0,4.0,37,0.00,,,0.00,meteohub,2013-02-25 13:28:00,
2013-02-25 08:31:00,26.2,2.8,30.33,North,0,2.0,4.0,36,0.00,,,0.00,meteohub,2013-02-25 13:31:00,
2013-02-25 08:32:00,26.4,3.0,30.34,East,90,0.0,4.0,36,0.00,,,0.00,meteohub,2013-02-25 13:32:00,
2013-02-25 08:34:00,26.8,2.8,30.33,NW,315,2.0,4.0,35,0.00,,,0.00,meteohub,2013-02-25 13:34:00,
2013-02-25 08:36:00,27.0,2.3,30.33,NW,315,1.0,3.0,34,0.00,,,0.00,meteohub,2013-02-25 13:36:00,
2013-02-25 08:37:00,27.1,2.5,30.33,NW,315,1.0,3.0,34,0.00,,,0.00,meteohub,2013-02-25 13:37:00,
2013-02-25 08:39:00,27.1,1.8,30.33,NW,315,2.0,3.0,33,0.00,,,0.00,meteohub,2013-02-25 13:39:00,
2013-02-25 08:41:00,27.1,1.2,30.33,West,270,4.0,4.0,32,0.00,,,0.00,meteohub,2013-02-25 13:41:00,
2013-02-25 08:42:00,27.1,1.2,30.33,West,270,2.0,3.0,32,0.00,,,0.00,meteohub,2013-02-25 13:42:00,
2013-02-25 08:43:00,27.3,0.7,30.33,West,270,2.0,3.0,31,0.00,,,0.00,meteohub,2013-02-25 13:43:00,
2013-02-25 08:44:00,27.3,0.7,30.33,NW,315,3.0,3.0,31,0.00,,,0.00,meteohub,2013-02-25 13:44:00,
2013-02-25 08:46:00,27.3,0.7,30.32,NW,315,3.0,4.0,31,0.00,,,0.00,meteohub,2013-02-25 13:46:00,
2013-02-25 08:47:00,27.1,-0.9,30.33,NW,315,2.0,4.0,29,0.00,,,0.00,meteohub,2013-02-25 13:47:00,
2013-02-25 08:48:00,27.1,-1.7,30.33,NW,315,3.0,4.0,28,0.00,,,0.00,meteohub,2013-02-25 13:48:00,
2013-02-25 08:51:00,27.3,-2.2,30.33,NW,315,2.0,4.0,27,0.00,,,0.00,meteohub,2013-02-25 13:51:00,
2013-02-25 08:52:00,27.5,-2.9,30.33,West,270,4.0,4.0,26,0.00,,,0.00,meteohub,2013-02-25 13:52:00,
2013-02-25 08:53:00,27.5,-4.5,30.33,NW,315,4.0,4.0,24,0.00,,,0.00,meteohub,2013-02-25 13:53:00,
2013-02-25 08:54:00,27.5,-4.5,30.33,West,270,4.0,4.0,24,0.00,,,0.00,meteohub,2013-02-25 13:54:00,
2013-02-25 08:56:00,27.7,-5.3,30.33,NW,315,4.0,4.0,23,0.00,,,0.00,meteohub,2013-02-25 13:56:00,
2013-02-25 08:57:00,27.9,-6.2,30.33,WSW,248,2.0,4.0,22,0.00,,,0.00,meteohub,2013-02-25 13:57:00,
2013-02-25 08:58:00,28.0,-6.0,30.33,NW,315,1.0,4.0,22,0.00,,,0.00,meteohub,2013-02-25 13:58:00,
2013-02-25 08:59:00,28.4,-6.5,30.33,NE,45,2.0,4.0,21,0.00,,,0.00,meteohub,2013-02-25 13:59:00,
2013-02-25 09:01:00,28.4,-6.5,30.33,NE,45,2.0,4.0,21,0.00,,,0.00,meteohub,2013-02-25 14:01:00,
2013-02-25 09:02:00,28.4,-6.5,30.34,NE,45,2.0,4.0,21,0.00,,,0.00,meteohub,2013-02-25 14:02:00,
2013-02-25 09:04:00,29.5,-9.9,30.33,West,270,1.0,4.0,17,0.00,,,0.00,meteohub,2013-02-25 14:04:00,
2013-02-25 09:05:00,29.7,-9.8,30.33,NW,315,1.0,4.0,17,0.00,,,0.00,meteohub,2013-02-25 14:05:00,
2013-02-25 09:06:00,29.8,-10.8,30.33,NE,45,3.0,4.0,16,0.00,,,0.00,meteohub,2013-02-25 14:06:00,
2013-02-25 09:07:00,30.0,-12.1,30.34,NW,315,3.0,4.0,15,0.00,,,0.00,meteohub,2013-02-25 14:07:00,
2013-02-25 09:09:00,30.2,-16.4,30.33,West,270,4.0,4.0,12,0.00,,,0.00,meteohub,2013-02-25 14:09:00,
2013-02-25 09:11:00,30.2,30.2,30.34,NW,315,4.0,4.0,0,0.00,,,0.00,meteohub,2013-02-25 14:11:00,
2013-02-25 09:13:00,30.2,30.2,30.34,North,0,3.0,4.0,0,0.00,,,0.00,meteohub,2013-02-25 14:13:00,
2013-02-25 09:15:00,30.2,30.2,30.34,North,0,3.0,4.0,0,0.00,,,0.00,meteohub,2013-02-25 14:15:00,
2013-02-25 09:16:00,30.4,30.4,30.34,West,270,4.0,4.0,0,0.00,,,0.00,meteohub,2013-02-25 14:16:00,
2013-02-25 09:19:00,30.4,30.4,30.35,NW,315,2.0,4.0,0,0.00,,,0.00,meteohub,2013-02-25 14:19:00,
2013-02-25 09:20:00,30.6,30.6,30.35,North,0,3.0,4.0,0,0.00,,,0.00,meteohub,2013-02-25 14:20:00,
2013-02-25 09:21:00,30.7,30.7,30.35,NW,315,2.0,4.0,0,0.00,,,0.00,meteohub,2013-02-25 14:21:00,
2013-02-25 09:23:00,30.9,30.9,30.35,North,0,3.0,4.0,0,0.00,,,0.00,meteohub,2013-02-25 14:23:00,
2013-02-25 09:24:00,31.1,31.1,30.34,West,270,4.0,4.0,0,0.00,,,0.00,meteohub,2013-02-25 14:24:00,
2013-02-25 09:25:00,31.1,31.1,30.35,NW,315,2.0,4.0,0,0.00,,,0.00,meteohub,2013-02-25 14:25:00,
2013-02-25 09:26:00,31.3,31.3,30.35,NW,315,3.0,4.0,0,0.00,,,0.00,meteohub,2013-02-25 14:26:00,
2013-02-25 09:28:00,31.5,31.5,30.35,NW,315,3.0,4.0,0,0.00,,,0.00,meteohub,2013-02-25 14:28:00,
2013-02-25 09:29:00,31.8,31.8,30.35,West,270,4.0,4.0,0,0.00,,,0.00,meteohub,2013-02-25 14:29:00,
2013-02-25 09:31:00,31.8,31.8,30.35,West,270,6.0,6.0,0,0.00,,,0.00,meteohub,2013-02-25 14:31:00,
2013-02-25 09:33:00,31.8,31.8,30.35,WSW,248,4.0,4.0,0,0.00,,,0.00,meteohub,2013-02-25 14:33:00,
2013-02-25 09:35:00,31.8,31.8,30.35,NW,315,4.0,4.0,0,0.00,,,0.00,meteohub,2013-02-25 14:35:00,
2013-02-25 09:36:00,32.2,32.2,30.35,North,0,2.0,6.0,0,0.00,,,0.00,meteohub,2013-02-25 14:36:00,
2013-02-25 09:38:00,32.4,32.4,30.35,West,270,4.0,6.0,0,0.00,,,0.00,meteohub,2013-02-25 14:38:00,
2013-02-25 09:41:00,32.7,32.7,30.35,North,0,4.0,6.0,0,0.00,,,0.00,meteohub,2013-02-25 14:41:00,
2013-02-25 09:43:00,33.1,33.1,30.35,WSW,248,2.0,6.0,0,0.00,,,0.00,meteohub,2013-02-25 14:43:00,
2013-02-25 09:44:00,33.4,33.4,30.35,WSW,248,2.0,6.0,0,0.00,,,0.00,meteohub,2013-02-25 14:44:00,
2013-02-25 09:46:00,33.6,33.6,30.35,West,270,4.0,6.0,0,0.00,,,0.00,meteohub,2013-02-25 14:46:00,
2013-02-25 09:49:00,33.4,33.4,30.35,WSW,248,2.0,6.0,0,0.00,,,0.00,meteohub,2013-02-25 14:49:00,
2013-02-25 09:51:00,34.5,34.5,30.35,North,0,3.0,4.0,0,0.00,,,0.00,meteohub,2013-02-25 14:51:00,
2013-02-25 09:52:00,34.7,34.7,30.35,NE,45,3.0,4.0,0,0.00,,,0.00,meteohub,2013-02-25 14:52:00,
2013-02-25 09:54:00,34.9,34.9,30.35,West,270,2.0,4.0,0,0.00,,,0.00,meteohub,2013-02-25 14:54:00,
2013-02-25 09:56:00,35.1,35.1,30.35,WSW,248,2.0,4.0,0,0.00,,,0.00,meteohub,2013-02-25 14:56:00,
2013-02-25 09:58:00,35.1,35.1,30.35,NE,45,2.0,4.0,0,0.00,,,0.00,meteohub,2013-02-25 14:58:00,
2013-02-25 09:59:00,35.2,35.2,30.35,NW,315,3.0,4.0,0,0.00,,,0.00,meteohub,2013-02-25 14:59:00,
2013-02-25 10:02:00,35.1,35.1,30.35,NE,45,2.0,4.0,0,0.00,,,0.00,meteohub,2013-02-25 15:02:00,
2013-02-25 10:03:00,35.1,35.1,30.35,NE,45,2.0,4.0,0,0.00,,,0.00,meteohub,2013-02-25 15:03:00,
2013-02-25 10:04:00,35.2,35.2,30.35,North,0,4.0,4.0,0,0.00,,,0.00,meteohub,2013-02-25 15:04:00,
2013-02-25 10:05:00,35.2,35.2,30.35,East,90,4.0,4.0,0,0.00,,,0.00,meteohub,2013-02-25 15:05:00,
2013-02-25 10:08:00,36.1,36.1,30.35,WSW,248,2.0,5.0,0,0.00,,,0.00,meteohub,2013-02-25 15:08:00,
2013-02-25 10:09:00,36.7,36.7,30.35,West,270,2.0,5.0,0,0.00,,,0.00,meteohub,2013-02-25 15:09:00,
2013-02-25 10:10:00,36.9,36.9,30.35,NW,315,5.0,5.0,0,0.00,,,0.00,meteohub,2013-02-25 15:10:00,
2013-02-25 10:13:00,37.0,37.0,30.35,South,180,2.0,5.0,0,0.00,,,0.00,meteohub,2013-02-25 15:13:00,
2013-02-25 10:15:00,37.6,37.6,30.35,WSW,248,2.0,5.0,0,0.00,,,0.00,meteohub,2013-02-25 15:15:00,
2013-02-25 10:19:00,38.1,38.1,30.35,West,270,4.0,5.0,0,0.00,,,0.00,meteohub,2013-02-25 15:19:00,
2013-02-25 10:20:00,37.9,37.9,30.35,SE,135,2.0,5.0,0,0.00,,,0.00,meteohub,2013-02-25 15:20:00,
2013-02-25 10:22:00,37.0,37.0,30.35,NW,315,2.0,5.0,0,0.00,,,0.00,meteohub,2013-02-25 15:22:00,
2013-02-25 10:25:00,36.0,36.0,30.35,NW,315,4.0,5.0,0,0.00,,,0.00,meteohub,2013-02-25 15:25:00,
2013-02-25 10:27:00,35.1,35.1,30.35,NE,45,4.0,5.0,0,0.00,,,0.00,meteohub,2013-02-25 15:27:00,
2013-02-25 10:30:00,34.9,34.9,30.35,South,180,2.0,5.0,0,0.00,,,0.00,meteohub,2013-02-25 15:30:00,
2013-02-25 10:32:00,35.2,35.2,30.35,NE,45,2.0,5.0,0,0.00,,,0.00,meteohub,2013-02-25 15:32:00,
2013-02-25 10:33:00,36.1,36.1,30.34,WSW,248,2.0,5.0,0,0.00,,,0.00,meteohub,2013-02-25 15:33:00,
2013-02-25 10:35:00,36.9,36.9,30.34,South,180,2.0,5.0,0,0.00,,,0.00,meteohub,2013-02-25 15:35:00,
2013-02-25 10:38:00,36.5,36.5,30.34,WSW,248,4.0,5.0,0,0.00,,,0.00,meteohub,2013-02-25 15:38:00,
2013-02-25 10:39:00,36.1,36.1,30.35,WSW,248,4.0,5.0,0,0.00,,,0.00,meteohub,2013-02-25 15:39:00,
2013-02-25 10:40:00,36.1,36.1,30.35,ENE,68,4.0,5.0,0,0.00,,,0.00,meteohub,2013-02-25 15:40:00,
2013-02-25 10:43:00,36.0,36.0,30.35,SE,135,5.0,5.0,0,0.00,,,0.00,meteohub,2013-02-25 15:43:00,
2013-02-25 10:44:00,36.1,36.1,30.35,South,180,3.0,5.0,0,0.00,,,0.00,meteohub,2013-02-25 15:44:00,
2013-02-25 10:45:00,36.3,36.3,30.35,NW,315,4.0,5.0,0,0.00,,,0.00,meteohub,2013-02-25 15:45:00,
2013-02-25 10:50:00,36.5,36.5,30.35,North,0,4.0,5.0,0,0.00,,,0.00,meteohub,2013-02-25 15:50:00,
2013-02-25 10:51:00,36.5,36.5,30.34,NW,315,5.0,5.0,0,0.00,,,0.00,meteohub,2013-02-25 15:51:00,
2013-02-25 10:52:00,36.3,36.3,30.34,NW,315,5.0,5.0,0,0.00,,,0.00,meteohub,2013-02-25 15:52:00,
2013-02-25 10:55:00,36.0,36.0,30.34,East,90,3.0,5.0,0,0.00,,,0.00,meteohub,2013-02-25 15:55:00,
2013-02-25 10:56:00,36.0,36.0,30.34,North,0,3.0,5.0,0,0.00,,,0.00,meteohub,2013-02-25 15:56:00,
2013-02-25 10:57:00,36.0,36.0,30.34,North,0,3.0,5.0,0,0.00,,,0.00,meteohub,2013-02-25 15:57:00,
2013-02-25 11:01:00,35.2,35.2,30.35,NW,315,3.0,5.0,0,0.00,,,0.00,meteohub,2013-02-25 16:01:00,
2013-02-25 11:02:00,35.2,35.2,30.34,NW,315,4.0,5.0,0,0.00,,,0.00,meteohub,2013-02-25 16:02:00,
2013-02-25 11:06:00,36.1,36.1,30.34,West,270,6.0,6.0,0,0.00,,,0.00,meteohub,2013-02-25 16:06:00,
2013-02-25 11:07:00,35.6,35.6,30.34,NE,45,3.0,5.0,0,0.00,,,0.00,meteohub,2013-02-25 16:07:00,
2013-02-25 11:08:00,35.6,35.6,30.34,North,0,4.0,5.0,0,0.00,,,0.00,meteohub,2013-02-25 16:08:00,
2013-02-25 11:12:00,35.6,35.6,30.35,NW,315,3.0,6.0,0,0.00,,,0.00,meteohub,2013-02-25 16:12:00,
2013-02-25 11:13:00,35.4,35.4,30.35,WNW,293,4.0,6.0,0,0.00,,,0.00,meteohub,2013-02-25 16:13:00,
2013-02-25 11:14:00,35.4,35.4,30.35,NW,315,3.0,6.0,0,0.00,,,0.00,meteohub,2013-02-25 16:14:00,
2013-02-25 11:18:00,35.4,35.4,30.35,NW,315,4.0,6.0,0,0.00,,,0.00,meteohub,2013-02-25 16:18:00,
2013-02-25 11:19:00,34.9,34.9,30.35,WSW,248,4.0,6.0,0,0.00,,,0.00,meteohub,2013-02-25 16:19:00,
2013-02-25 11:20:00,34.9,34.9,30.35,NW,315,4.0,6.0,0,0.00,,,0.00,meteohub,2013-02-25 16:20:00,
2013-02-25 11:24:00,35.8,35.8,30.34,North,0,5.0,6.0,0,0.00,,,0.00,meteohub,2013-02-25 16:24:00,
2013-02-25 11:25:00,36.3,36.3,30.34,NW,315,2.0,6.0,0,0.00,,,0.00,meteohub,2013-02-25 16:25:00,
2013-02-25 11:30:00,38.3,38.3,30.34,WSW,248,3.0,5.0,0,0.00,,,0.00,meteohub,2013-02-25 16:30:00,
2013-02-25 11:31:00,38.3,38.3,30.34,WSW,248,3.0,5.0,0,0.00,,,0.00,meteohub,2013-02-25 16:31:00,
2013-02-25 11:32:00,38.3,38.3,30.34,WSW,248,3.0,5.0,0,0.00,,,0.00,meteohub,2013-02-25 16:32:00,
2013-02-25 11:35:00,38.7,38.7,30.34,NW,315,3.0,5.0,0,0.00,,,0.00,meteohub,2013-02-25 16:35:00,
2013-02-25 11:36:00,38.7,38.7,30.34,NW,315,3.0,5.0,0,0.00,,,0.00,meteohub,2013-02-25 16:36:00,
2013-02-25 11:37:00,39.0,39.0,30.34,NE,45,2.0,5.0,0,0.00,,,0.00,meteohub,2013-02-25 16:37:00,
2013-02-25 11:40:00,39.7,39.7,30.34,SE,135,4.0,4.0,0,0.00,,,0.00,meteohub,2013-02-25 16:40:00,
2013-02-25 11:41:00,39.4,39.4,30.34,NW,315,2.0,4.0,0,0.00,,,0.00,meteohub,2013-02-25 16:41:00,
2013-02-25 11:43:00,38.7,38.7,30.34,WSW,248,3.0,4.0,0,0.00,,,0.00,meteohub,2013-02-25 16:43:00,
2013-02-25 11:46:00,38.1,38.1,30.34,South,180,3.0,4.0,0,0.00,,,0.00,meteohub,2013-02-25 16:46:00,
2013-02-25 11:48:00,37.9,37.9,30.33,NE,45,1.0,4.0,0,0.00,,,0.00,meteohub,2013-02-25 16:48:00,
2013-02-25 11:49:00,38.1,38.1,30.34,NE,45,4.0,4.0,0,0.00,,,0.00,meteohub,2013-02-25 16:49:00,
2013-02-25 11:51:00,38.3,38.3,30.34,East,90,4.0,4.0,0,0.00,,,0.00,meteohub,2013-02-25 16:51:00,
2013-02-25 11:52:00,38.3,38.3,30.33,NE,45,4.0,4.0,0,0.00,,,0.00,meteohub,2013-02-25 16:52:00,
2013-02-25 11:54:00,37.9,37.9,30.33,East,90,3.0,4.0,0,0.00,,,0.00,meteohub,2013-02-25 16:54:00,
2013-02-25 11:57:00,38.3,38.3,30.33,North,0,4.0,5.0,0,0.00,,,0.00,meteohub,2013-02-25 16:57:00,
2013-02-25 11:59:00,38.1,38.1,30.33,SE,135,4.0,5.0,0,0.00,,,0.00,meteohub,2013-02-25 16:59:00,
2013-02-25 12:00:00,38.3,38.3,30.33,SE,135,2.0,5.0,0,0.00,,,0.00,meteohub,2013-02-25 17:00:00,
2013-02-25 12:03:00,37.9,37.9,30.33,NE,45,4.0,5.0,0,0.00,,,0.00,meteohub,2013-02-25 17:03:00,
2013-02-25 12:06:00,37.2,37.2,30.33,NE,45,4.0,5.0,0,0.00,,,0.00,meteohub,2013-02-25 17:06:00,
2013-02-25 12:07:00,37.2,37.2,30.33,NE,45,4.0,5.0,0,0.00,,,0.00,meteohub,2013-02-25 17:07:00,
2013-02-25 12:08:00,36.9,36.9,30.33,NE,45,2.0,5.0,0,0.00,,,0.00,meteohub,2013-02-25 17:08:00,
2013-02-25 12:09:00,36.9,36.9,30.33,NE,45,2.0,5.0,0,0.00,,,0.00,meteohub,2013-02-25 17:09:00,
2013-02-25 12:12:00,37.8,37.8,30.33,West,270,2.0,4.0,0,0.00,,,0.00,meteohub,2013-02-25 17:12:00,
2013-02-25 12:13:00,38.1,38.1,30.33,WSW,248,3.0,4.0,0,0.00,,,0.00,meteohub,2013-02-25 17:13:00,
2013-02-25 12:14:00,38.1,38.1,30.33,South,180,6.0,6.0,0,0.00,,,0.00,meteohub,2013-02-25 17:14:00,
2013-02-25 12:17:00,37.6,37.6,30.33,NE,45,4.0,4.0,0,0.00,,,0.00,meteohub,2013-02-25 17:17:00,
2013-02-25 12:18:00,37.6,37.6,30.33,NE,45,4.0,4.0,0,0.00,,,0.00,meteohub,2013-02-25 17:18:00,
2013-02-25 12:19:00,37.4,37.4,30.34,NE,45,6.0,6.0,0,0.00,,,0.00,meteohub,2013-02-25 17:19:00,
2013-02-25 12:20:00,37.0,37.0,30.33,NE,45,7.0,7.0,0,0.00,,,0.00,meteohub,2013-02-25 17:20:00,
2013-02-25 12:22:00,35.8,35.8,30.33,NE,45,8.0,8.0,0,0.00,,,0.00,meteohub,2013-02-25 17:22:00,
2013-02-25 12:23:00,35.6,35.6,30.34,NE,45,4.0,7.0,0,0.00,,,0.00,meteohub,2013-02-25 17:23:00,
2013-02-25 12:24:00,35.4,35.4,30.33,West,270,5.0,7.0,0,0.00,,,0.00,meteohub,2013-02-25 17:24:00,
2013-02-25 12:26:00,35.1,35.1,30.33,WSW,248,3.0,8.0,0,0.00,,,0.00,meteohub,2013-02-25 17:26:00,
2013-02-25 12:28:00,34.9,34.9,30.34,North,0,2.0,8.0,0,0.00,,,0.00,meteohub,2013-02-25 17:28:00,
2013-02-25 12:31:00,35.1,35.1,30.34,NE,45,2.0,8.0,0,0.00,,,0.00,meteohub,2013-02-25 17:31:00,
2013-02-25 12:33:00,35.1,35.1,30.33,East,90,2.0,8.0,0,0.00,,,0.00,meteohub,2013-02-25 17:33:00,
2013-02-25 12:34:00,35.1,35.1,30.33,NE,45,1.0,8.0,0,0.00,,,0.00,meteohub,2013-02-25 17:34:00,
2013-02-25 12:36:00,35.1,35.1,30.33,West,270,2.0,8.0,0,0.00,,,0.00,meteohub,2013-02-25 17:36:00,
2013-02-25 12:37:00,35.2,35.2,30.33,NW,315,3.0,8.0,0,0.00,,,0.00,meteohub,2013-02-25 17:37:00,
2013-02-25 12:39:00,35.4,35.4,30.33,WSW,248,2.0,8.0,0,0.00,,,0.00,meteohub,2013-02-25 17:39:00,
2013-02-25 12:40:00,35.4,35.4,30.33,WSW,248,2.0,8.0,0,0.00,,,0.00,meteohub,2013-02-25 17:40:00,
2013-02-25 12:41:00,35.4,35.4,30.33,WSW,248,2.0,4.0,0,0.00,,,0.00,meteohub,2013-02-25 17:41:00,
2013-02-25 12:44:00,35.4,35.4,30.33,West,270,2.0,4.0,0,0.00,,,0.00,meteohub,2013-02-25 17:44:00,
2013-02-25 12:45:00,35.4,35.4,30.33,North,0,2.0,4.0,0,0.00,,,0.00,meteohub,2013-02-25 17:45:00,
2013-02-25 12:46:00,35.2,35.2,30.33,North,0,3.0,3.0,0,0.00,,,0.00,meteohub,2013-02-25 17:46:00,
2013-02-25 12:50:00,35.2,35.2,30.33,NW,315,3.0,3.0,0,0.00,,,0.00,meteohub,2013-02-25 17:50:00,
2013-02-25 12:51:00,35.2,35.2,30.33,North,0,4.0,5.0,0,0.00,,,0.00,meteohub,2013-02-25 17:51:00,
2013-02-25 12:52:00,35.2,35.2,30.33,North,0,4.0,5.0,0,0.00,,,0.00,meteohub,2013-02-25 17:52:00,
2013-02-25 12:55:00,34.9,34.9,30.32,NE,45,3.0,5.0,0,0.00,,,0.00,meteohub,2013-02-25 17:55:00,
2013-02-25 12:57:00,35.6,35.6,30.32,West,270,2.0,5.0,0,0.00,,,0.00,meteohub,2013-02-25 17:57:00,
2013-02-25 13:01:00,36.3,36.3,30.32,WSW,248,1.0,5.0,0,0.00,,,0.00,meteohub,2013-02-25 18:01:00,
2013-02-25 13:02:00,37.0,37.0,30.31,WSW,248,2.0,5.0,0,0.00,,,0.00,meteohub,2013-02-25 18:02:00,
2013-02-25 13:03:00,37.0,37.0,30.32,WSW,248,2.0,5.0,0,0.00,,,0.00,meteohub,2013-02-25 18:03:00,
2013-02-25 13:06:00,38.1,38.1,30.31,WSW,248,2.0,4.0,0,0.00,,,0.00,meteohub,2013-02-25 18:06:00,
2013-02-25 13:07:00,38.3,38.3,30.30,WSW,248,2.0,4.0,0,0.00,,,0.00,meteohub,2013-02-25 18:07:00,
2013-02-25 13:09:00,39.4,39.4,30.30,WSW,248,5.0,5.0,0,0.00,,,0.00,meteohub,2013-02-25 18:09:00,
2013-02-25 13:11:00,39.6,39.6,30.30,WSW,248,6.0,6.0,0,0.00,,,0.00,meteohub,2013-02-25 18:11:00,
2013-02-25 13:12:00,39.4,39.4,30.30,South,180,5.0,5.0,0,0.00,,,0.00,meteohub,2013-02-25 18:12:00,
2013-02-25 13:13:00,39.2,39.2,30.30,South,180,5.0,5.0,0,0.00,,,0.00,meteohub,2013-02-25 18:13:00,
2013-02-25 13:14:00,39.2,39.2,30.30,South,180,4.0,4.0,0,0.00,,,0.00,meteohub,2013-02-25 18:14:00,
2013-02-25 13:16:00,39.9,39.9,30.30,South,180,2.0,6.0,0,0.00,,,0.00,meteohub,2013-02-25 18:16:00,
2013-02-25 13:18:00,39.9,39.9,30.30,South,180,2.0,6.0,0,0.00,,,0.00,meteohub,2013-02-25 18:18:00,
2013-02-25 13:20:00,41.2,41.2,30.30,East,90,6.0,6.0,0,0.00,,,0.00,meteohub,2013-02-25 18:20:00,
2013-02-25 13:22:00,41.2,41.2,30.30,NE,45,7.0,7.0,0,0.00,,,0.00,meteohub,2013-02-25 18:22:00,
2013-02-25 13:23:00,41.4,41.4,30.30,North,0,4.0,6.0,0,0.00,,,0.00,meteohub,2013-02-25 18:23:00,
2013-02-25 13:25:00,41.4,41.4,30.30,NW,315,4.0,6.0,0,0.00,,,0.00,meteohub,2013-02-25 18:25:00,
2013-02-25 13:27:00,42.1,42.1,30.30,West,270,3.0,6.0,0,0.00,,,0.00,meteohub,2013-02-25 18:27:00,
2013-02-25 13:28:00,42.4,42.4,30.31,North,0,4.0,6.0,0,0.00,,,0.00,meteohub,2013-02-25 18:28:00,
2013-02-25 13:30:00,42.6,42.6,30.31,NW,315,7.0,7.0,0,0.00,,,0.00,meteohub,2013-02-25 18:30:00,
2013-02-25 13:31:00,42.6,42.6,30.31,East,90,7.0,7.0,0,0.00,,,0.00,meteohub,2013-02-25 18:31:00,
2013-02-25 13:32:00,42.4,42.4,30.30,NE,45,7.0,7.0,0,0.00,,,0.00,meteohub,2013-02-25 18:32:00,
2013-02-25 13:35:00,41.7,41.7,30.30,NE,45,4.0,7.0,0,0.00,,,0.00,meteohub,2013-02-25 18:35:00,
2013-02-25 13:36:00,41.5,41.5,30.30,East,90,5.0,7.0,0,0.00,,,0.00,meteohub,2013-02-25 18:36:00,
2013-02-25 13:39:00,42.3,42.3,30.31,East,90,2.0,7.0,0,0.00,,,0.00,meteohub,2013-02-25 18:39:00,
2013-02-25 13:40:00,42.4,42.4,30.31,NE,45,6.0,7.0,0,0.00,,,0.00,meteohub,2013-02-25 18:40:00,
2013-02-25 13:41:00,42.4,42.4,30.30,NE,45,4.0,7.0,0,0.00,,,0.00,meteohub,2013-02-25 18:41:00,
2013-02-25 13:44:00,42.6,42.6,30.30,North,0,6.0,7.0,0,0.00,,,0.00,meteohub,2013-02-25 18:44:00,
2013-02-25 13:45:00,42.6,42.6,30.30,North,0,4.0,7.0,0,0.00,,,0.00,meteohub,2013-02-25 18:45:00,
2013-02-25 13:46:00,42.6,42.6,30.30,North,0,4.0,7.0,0,0.00,,,0.00,meteohub,2013-02-25 18:46:00,
2013-02-25 13:47:00,42.8,42.8,30.30,North,0,4.0,7.0,0,0.00,,,0.00,meteohub,2013-02-25 18:47:00,
2013-02-25 13:50:00,42.8,42.8,30.30,NE,45,6.0,7.0,0,0.00,,,0.00,meteohub,2013-02-25 18:50:00,
2013-02-25 13:51:00,42.8,42.8,30.30,North,0,4.0,7.0,0,0.00,,,0.00,meteohub,2013-02-25 18:51:00,
2013-02-25 13:52:00,42.8,42.8,30.30,North,0,4.0,7.0,0,0.00,,,0.00,meteohub,2013-02-25 18:52:00,
2013-02-25 13:55:00,45.0,45.0,30.30,WSW,248,2.0,7.0,0,0.00,,,0.00,meteohub,2013-02-25 18:55:00,
2013-02-25 13:56:00,45.3,45.3,30.30,SE,135,2.0,7.0,0,0.00,,,0.00,meteohub,2013-02-25 18:56:00,
2013-02-25 13:57:00,45.3,45.3,30.30,SE,135,2.0,7.0,0,0.00,,,0.00,meteohub,2013-02-25 18:57:00,
2013-02-25 13:58:00,45.9,45.9,30.30,South,180,2.0,7.0,0,0.00,,,0.00,meteohub,2013-02-25 18:58:00,
2013-02-25 14:02:00,45.1,45.1,30.29,South,180,4.0,6.0,0,0.00,,,0.00,meteohub,2013-02-25 19:02:00,
2013-02-25 14:03:00,45.1,45.1,30.29,South,180,4.0,6.0,0,0.00,,,0.00,meteohub,2013-02-25 19:03:00,
2013-02-25 14:07:00,44.1,44.1,30.30,North,0,7.0,8.0,0,0.00,,,0.00,meteohub,2013-02-25 19:07:00,
2013-02-25 14:08:00,43.7,43.7,30.29,NW,315,4.0,8.0,0,0.00,,,0.00,meteohub,2013-02-25 19:08:00,
2013-02-25 14:12:00,43.5,43.5,30.29,NW,315,2.0,8.0,0,0.00,,,0.00,meteohub,2013-02-25 19:12:00,
2013-02-25 14:13:00,43.5,43.5,30.29,South,180,4.0,8.0,0,0.00,,,0.00,meteohub,2013-02-25 19:13:00,
2013-02-25 14:14:00,43.5,43.5,30.30,South,180,3.0,8.0,0,0.00,,,0.00,meteohub,2013-02-25 19:14:00,
2013-02-25 14:18:00,44.2,44.2,30.29,SE,135,2.0,8.0,0,0.00,,,0.00,meteohub,2013-02-25 19:18:00,
2013-02-25 14:20:00,45.5,45.5,30.29,North,0,2.0,8.0,0,0.00,,,0.00,meteohub,2013-02-25 19:20:00,
2013-02-25 14:24:00,46.0,46.0,30.28,NW,315,3.0,7.0,0,0.00,,,0.00,meteohub,2013-02-25 19:24:00,
2013-02-25 14:25:00,46.0,46.0,30.28,WSW,248,2.0,7.0,0,0.00,,,0.00,meteohub,2013-02-25 19:25:00,
2013-02-25 14:26:00,46.0,46.0,30.29,South,180,2.0,5.0,0,0.00,,,0.00,meteohub,2013-02-25 19:26:00,
2013-02-25 14:29:00,46.0,46.0,30.28,East,90,3.0,5.0,0,0.00,,,0.00,meteohub,2013-02-25 19:29:00,
2013-02-25 14:30:00,46.0,46.0,30.29,East,90,3.0,5.0,0,0.00,,,0.00,meteohub,2013-02-25 19:30:00,
2013-02-25 14:31:00,45.9,45.9,30.29,South,180,4.0,4.0,0,0.00,,,0.00,meteohub,2013-02-25 19:31:00,
2013-02-25 14:34:00,45.3,45.3,30.28,SE,135,4.0,4.0,0,0.00,,,0.00,meteohub,2013-02-25 19:34:00,
2013-02-25 14:35:00,45.1,45.1,30.28,ESE,113,2.0,4.0,0,0.00,,,0.00,meteohub,2013-02-25 19:35:00,
2013-02-25 14:36:00,44.8,44.8,30.28,NE,45,4.0,4.0,0,0.00,,,0.00,meteohub,2013-02-25 19:36:00,
2013-02-25 14:37:00,44.6,44.6,30.28,NW,315,3.0,4.0,0,0.00,,,0.00,meteohub,2013-02-25 19:37:00,
2013-02-25 14:39:00,44.4,44.4,30.28,NW,315,2.0,4.0,0,0.00,,,0.00,meteohub,2013-02-25 19:39:00,
2013-02-25 14:40:00,44.6,44.6,30.28,West,270,2.0,4.0,0,0.00,,,0.00,meteohub,2013-02-25 19:40:00,
2013-02-25 14:42:00,44.8,44.8,30.28,West,270,2.0,4.0,0,0.00,,,0.00,meteohub,2013-02-25 19:42:00,
2013-02-25 14:44:00,45.7,45.7,30.28,NE,45,4.0,4.0,0,0.00,,,0.00,meteohub,2013-02-25 19:44:00,
2013-02-25 14:45:00,45.5,45.5,30.28,East,90,6.0,6.0,0,0.00,,,0.00,meteohub,2013-02-25 19:45:00,
2013-02-25 14:47:00,44.8,44.8,30.28,NE,45,4.0,4.0,0,0.00,,,0.00,meteohub,2013-02-25 19:47:00,
2013-02-25 14:48:00,44.6,44.6,30.28,East,90,4.0,4.0,0,0.00,,,0.00,meteohub,2013-02-25 19:48:00,
2013-02-25 14:49:00,44.4,44.4,30.28,WSW,248,3.0,4.0,0,0.00,,,0.00,meteohub,2013-02-25 19:49:00,
2013-02-25 14:51:00,44.6,44.6,30.28,North,0,2.0,6.0,0,0.00,,,0.00,meteohub,2013-02-25 19:51:00,
2013-02-25 14:52:00,45.1,45.1,30.28,NE,45,2.0,6.0,0,0.00,,,0.00,meteohub,2013-02-25 19:52:00,
2013-02-25 14:54:00,45.3,45.3,30.28,North,0,3.0,6.0,0,0.00,,,0.00,meteohub,2013-02-25 19:54:00,
2013-02-25 14:55:00,45.5,45.5,30.28,East,90,4.0,6.0,0,0.00,,,0.00,meteohub,2013-02-25 19:55:00,
2013-02-25 14:58:00,45.0,45.0,30.29,South,180,3.0,6.0,0,0.00,,,0.00,meteohub,2013-02-25 19:58:00,
2013-02-25 15:00:00,45.1,45.1,30.28,South,180,4.0,6.0,0,0.00,,,0.00,meteohub,2013-02-25 20:00:00,
2013-02-25 15:03:00,45.1,45.1,30.28,WSW,248,3.0,6.0,0,0.00,,,0.00,meteohub,2013-02-25 20:03:00,
2013-02-25 15:04:00,45.0,45.0,30.29,WSW,248,3.0,6.0,0,0.00,,,0.00,meteohub,2013-02-25 20:04:00,
2013-02-25 15:05:00,45.0,45.0,30.28,WSW,248,2.0,6.0,0,0.00,,,0.00,meteohub,2013-02-25 20:05:00,
2013-02-25 15:09:00,45.1,45.1,30.28,NW,315,4.0,6.0,0,0.00,,,0.00,meteohub,2013-02-25 20:09:00,
2013-02-25 15:10:00,44.8,44.8,30.29,NW,315,2.0,6.0,0,0.00,,,0.00,meteohub,2013-02-25 20:10:00,
2013-02-25 15:14:00,45.9,45.9,30.29,SE,135,2.0,6.0,0,0.00,,,0.00,meteohub,2013-02-25 20:14:00,
2013-02-25 15:15:00,46.0,46.0,30.28,South,180,3.0,6.0,0,0.00,,,0.00,meteohub,2013-02-25 20:15:00,
2013-02-25 15:16:00,46.2,46.2,30.28,South,180,2.0,5.0,0,0.00,,,0.00,meteohub,2013-02-25 20:16:00,
2013-02-25 15:18:00,46.2,46.2,30.29,South,180,2.0,5.0,0,0.00,,,0.00,meteohub,2013-02-25 20:18:00,
2013-02-25 15:19:00,46.6,46.6,30.29,WSW,248,3.0,5.0,0,0.00,,,0.00,meteohub,2013-02-25 20:19:00,
2013-02-25 15:20:00,46.8,46.8,30.29,South,180,2.0,5.0,0,0.00,,,0.00,meteohub,2013-02-25 20:20:00,
2013-02-25 15:23:00,46.8,46.8,30.29,NE,45,3.0,4.0,0,0.00,,,0.00,meteohub,2013-02-25 20:23:00,
2013-02-25 15:25:00,45.5,45.5,30.29,East,90,4.0,4.0,0,0.00,,,0.00,meteohub,2013-02-25 20:25:00,
2013-02-25 15:26:00,45.1,45.1,30.29,East,90,4.0,4.0,0,0.00,,,0.00,meteohub,2013-02-25 20:26:00,
2013-02-25 15:28:00,44.4,44.4,30.29,East,90,3.0,4.0,0,0.00,,,0.00,meteohub,2013-02-25 20:28:00,
2013-02-25 15:30:00,44.4,44.4,30.29,NE,45,2.0,5.0,0,0.00,,,0.00,meteohub,2013-02-25 20:30:00,
2013-02-25 15:31:00,44.4,44.4,30.29,NE,45,5.0,5.0,0,0.00,,,0.00,meteohub,2013-02-25 20:31:00,
2013-02-25 15:33:00,44.6,44.6,30.29,South,180,2.0,5.0,0,0.00,,,0.00,meteohub,2013-02-25 20:33:00,
2013-02-25 15:34:00,44.6,44.6,30.29,South,180,5.0,5.0,0,0.00,,,0.00,meteohub,2013-02-25 20:34:00,
2013-02-25 15:36:00,44.1,44.1,30.29,West,270,5.0,5.0,0,0.00,,,0.00,meteohub,2013-02-25 20:36:00,
2013-02-25 15:37:00,44.1,44.1,30.29,West,270,5.0,5.0,0,0.00,,,0.00,meteohub,2013-02-25 20:37:00,
2013-02-25 15:39:00,44.2,44.2,30.29,WSW,248,3.0,5.0,0,0.00,,,0.00,meteohub,2013-02-25 20:39:00,
2013-02-25 15:40:00,44.4,44.4,30.29,WNW,293,1.0,7.0,0,0.00,,,0.00,meteohub,2013-02-25 20:40:00,
2013-02-25 15:42:00,44.6,44.6,30.28,North,0,4.0,7.0,0,0.00,,,0.00,meteohub,2013-02-25 20:42:00,
2013-02-25 15:44:00,45.7,45.7,30.29,South,180,5.0,7.0,0,0.00,,,0.00,meteohub,2013-02-25 20:44:00,
2013-02-25 15:46:00,45.5,45.5,30.29,South,180,4.0,7.0,0,0.00,,,0.00,meteohub,2013-02-25 20:46:00,
2013-02-25 15:47:00,45.3,45.3,30.29,West,270,2.0,7.0,0,0.00,,,0.00,meteohub,2013-02-25 20:47:00,
2013-02-25 15:50:00,45.5,45.5,30.29,South,180,3.0,7.0,0,0.00,,,0.00,meteohub,2013-02-25 20:50:00,
2013-02-25 15:51:00,45.7,45.7,30.29,South,180,2.0,7.0,0,0.00,,,0.00,meteohub,2013-02-25 20:51:00,
2013-02-25 15:52:00,46.0,46.0,30.29,West,270,3.0,7.0,0,0.00,,,0.00,meteohub,2013-02-25 20:52:00,
2013-02-25 15:55:00,45.7,45.7,30.29,South,180,3.0,7.0,0,0.00,,,0.00,meteohub,2013-02-25 20:55:00,
2013-02-25 15:56:00,45.7,45.7,30.29,North,0,2.0,5.0,0,0.00,,,0.00,meteohub,2013-02-25 20:56:00,
2013-02-25 15:57:00,45.9,45.9,30.29,SE,135,3.0,5.0,0,0.00,,,0.00,meteohub,2013-02-25 20:57:00,
2013-02-25 16:00:00,46.0,46.0,30.29,East,90,2.0,5.0,0,0.00,,,0.00,meteohub,2013-02-25 21:00:00,
2013-02-25 16:01:00,46.0,46.0,30.29,NE,45,2.0,4.0,0,0.00,,,0.00,meteohub,2013-02-25 21:01:00,
2013-02-25 16:02:00,46.0,46.0,30.28,North,0,4.0,4.0,0,0.00,,,0.00,meteohub,2013-02-25 21:02:00,
2013-02-25 16:05:00,46.0,46.0,30.28,SE,135,2.0,4.0,0,0.00,,,0.00,meteohub,2013-02-25 21:05:00,
2013-02-25 16:06:00,46.0,46.0,30.28,SE,135,2.0,4.0,0,0.00,,,0.00,meteohub,2013-02-25 21:06:00,
2013-02-25 16:07:00,46.0,46.0,30.28,SE,135,2.0,4.0,0,0.00,,,0.00,meteohub,2013-02-25 21:07:00,
2013-02-25 16:11:00,45.7,45.7,30.28,NE,45,2.0,4.0,0,0.00,,,0.00,meteohub,2013-02-25 21:11:00,
2013-02-25 16:12:00,45.7,45.7,30.28,North,0,1.0,4.0,0,0.00,,,0.00,meteohub,2013-02-25 21:12:00,
2013-02-25 16:16:00,46.2,46.2,30.28,East,90,4.0,4.0,0,0.00,,,0.00,meteohub,2013-02-25 21:16:00,
2013-02-25 16:17:00,46.2,46.2,30.28,East,90,4.0,4.0,0,0.00,,,0.00,meteohub,2013-02-25 21:17:00,
2013-02-25 16:19:00,45.5,45.5,30.28,North,0,3.0,4.0,0,0.00,,,0.00,meteohub,2013-02-25 21:19:00,
2013-02-25 16:20:00,45.1,45.1,30.28,East,90,4.0,4.0,0,0.00,,,0.00,meteohub,2013-02-25 21:20:00,
2013-02-25 16:21:00,45.0,45.0,30.28,NE,45,3.0,4.0,0,0.00,,,0.00,meteohub,2013-02-25 21:21:00,
2013-02-25 16:22:00,45.0,45.0,30.28,East,90,2.0,4.0,0,0.00,,,0.00,meteohub,2013-02-25 21:22:00,
2013-02-25 16:26:00,44.6,44.6,30.28,NE,45,3.0,4.0,0,0.00,,,0.00,meteohub,2013-02-25 21:26:00,
2013-02-25 16:27:00,44.4,44.4,30.28,East,90,2.0,4.0,0,0.00,,,0.00,meteohub,2013-02-25 21:27:00,
2013-02-25 16:28:00,44.2,44.2,30.28,NE,45,2.0,4.0,0,0.00,,,0.00,meteohub,2013-02-25 21:28:00,
2013-02-25 16:31:00,43.9,43.9,30.28,NE,45,2.0,4.0,0,0.00,,,0.00,meteohub,2013-02-25 21:31:00,
2013-02-25 16:32:00,43.9,43.9,30.28,SE,135,2.0,4.0,0,0.00,,,0.00,meteohub,2013-02-25 21:32:00,
2013-02-25 16:33:00,43.7,43.7,30.29,East,90,4.0,4.0,0,0.00,,,0.00,meteohub,2013-02-25 21:33:00,
2013-02-25 16:36:00,43.5,43.5,30.28,South,180,2.0,4.0,0,0.00,,,0.00,meteohub,2013-02-25 21:36:00,
2013-02-25 16:37:00,43.5,43.5,30.28,South,180,2.0,4.0,0,0.00,,,0.00,meteohub,2013-02-25 21:37:00,
2013-02-25 16:38:00,43.7,43.7,30.28,North,0,2.0,4.0,0,0.00,,,0.00,meteohub,2013-02-25 21:38:00,
2013-02-25 16:42:00,43.5,43.5,30.29,East,90,2.0,4.0,0,0.00,,,0.00,meteohub,2013-02-25 21:42:00,
2013-02-25 16:44:00,43.5,43.5,30.28,NE,45,2.0,4.0,0,0.00,,,0.00,meteohub,2013-02-25 21:44:00,
2013-02-25 16:48:00,43.0,43.0,30.29,East,90,5.0,5.0,0,0.00,,,0.00,meteohub,2013-02-25 21:48:00,
2013-02-25 16:49:00,42.4,42.4,30.29,NE,45,2.0,4.0,0,0.00,,,0.00,meteohub,2013-02-25 21:49:00,
2013-02-25 16:50:00,42.3,42.3,30.29,North,0,3.0,4.0,0,0.00,,,0.00,meteohub,2013-02-25 21:50:00,
2013-02-25 16:53:00,41.5,41.5,30.29,East,90,5.0,5.0,0,0.00,,,0.00,meteohub,2013-02-25 21:53:00,
2013-02-25 16:54:00,41.4,41.4,30.29,NE,45,4.0,5.0,0,0.00,,,0.00,meteohub,2013-02-25 21:54:00,
2013-02-25 16:55:00,41.2,41.2,30.28,NE,45,3.0,5.0,0,0.00,,,0.00,meteohub,2013-02-25 21:55:00,
2013-02-25 16:58:00,40.8,40.8,30.28,East,90,4.0,5.0,0,0.00,,,0.00,meteohub,2013-02-25 21:58:00,
2013-02-25 16:59:00,40.5,40.5,30.28,East,90,6.0,6.0,0,0.00,,,0.00,meteohub,2013-02-25 21:59:00,
2013-02-25 17:00:00,40.5,40.5,30.28,East,90,6.0,6.0,0,0.00,,,0.00,meteohub,2013-02-25 22:00:00,
2013-02-25 17:01:00,40.3,40.3,30.28,East,90,2.0,6.0,0,0.00,,,0.00,meteohub,2013-02-25 22:01:00,
2013-02-25 17:05:00,39.7,39.7,30.29,NE,45,5.0,6.0,0,0.00,,,0.00,meteohub,2013-02-25 22:05:00,
2013-02-25 17:06:00,39.7,39.7,30.29,North,0,4.0,6.0,0,0.00,,,0.00,meteohub,2013-02-25 22:06:00,
2013-02-25 17:10:00,39.9,39.9,30.29,East,90,2.0,6.0,0,0.00,,,0.00,meteohub,2013-02-25 22:10:00,
2013-02-25 17:11:00,39.9,39.9,30.29,NE,45,2.0,6.0,0,0.00,,,0.00,meteohub,2013-02-25 22:11:00,
2013-02-25 17:12:00,39.9,39.9,30.28,SE,135,2.0,6.0,0,0.00,,,0.00,meteohub,2013-02-25 22:12:00,
2013-02-25 17:16:00,40.3,40.3,30.29,NE,45,2.0,6.0,0,0.00,,,0.00,meteohub,2013-02-25 22:16:00,
2013-02-25 17:17:00,40.3,40.3,30.29,SE,135,2.0,6.0,0,0.00,,,0.00,meteohub,2013-02-25 22:17:00,
2013-02-25 17:18:00,40.3,40.3,30.29,SE,135,2.0,6.0,0,0.00,,,0.00,meteohub,2013-02-25 22:18:00,
2013-02-25 17:21:00,39.9,39.9,30.29,East,90,2.0,5.0,0,0.00,,,0.00,meteohub,2013-02-25 22:21:00,
2013-02-25 17:22:00,39.9,39.9,30.29,East,90,2.0,5.0,0,0.00,,,0.00,meteohub,2013-02-25 22:22:00,
2013-02-25 17:23:00,39.9,39.9,30.28,NE,45,2.0,5.0,0,0.00,,,0.00,meteohub,2013-02-25 22:23:00,
2013-02-25 17:27:00,40.1,40.1,30.28,East,90,4.0,4.0,0,0.00,,,0.00,meteohub,2013-02-25 22:27:00,
2013-02-25 17:28:00,39.9,39.9,30.28,East,90,5.0,5.0,0,0.00,,,0.00,meteohub,2013-02-25 22:28:00,
2013-02-25 17:29:00,39.7,39.7,30.29,East,90,4.0,4.0,0,0.00,,,0.00,meteohub,2013-02-25 22:29:00,
2013-02-25 17:32:00,39.4,39.4,30.28,East,90,2.0,5.0,0,0.00,,,0.00,meteohub,2013-02-25 22:32:00,
2013-02-25 17:33:00,39.4,39.4,30.28,East,90,2.0,5.0,0,0.00,,,0.00,meteohub,2013-02-25 22:33:00,
2013-02-25 17:34:00,39.0,39.0,30.29,NE,45,2.0,5.0,0,0.00,,,0.00,meteohub,2013-02-25 22:34:00,
2013-02-25 17:38:00,38.7,38.7,30.28,SE,135,4.0,5.0,0,0.00,,,0.00,meteohub,2013-02-25 22:38:00,
2013-02-25 17:39:00,38.7,38.7,30.29,East,90,3.0,5.0,0,0.00,,,0.00,meteohub,2013-02-25 22:39:00,
2013-02-25 17:43:00,38.3,38.3,30.29,NE,45,4.0,5.0,0,0.00,,,0.00,meteohub,2013-02-25 22:43:00,
2013-02-25 17:45:00,38.1,38.1,30.29,SE,135,5.0,5.0,0,0.00,,,0.00,meteohub,2013-02-25 22:45:00,
2013-02-25 17:48:00,37.9,37.9,30.29,East,90,4.0,4.0,0,0.00,,,0.00,meteohub,2013-02-25 22:48:00,
2013-02-25 17:49:00,37.9,37.9,30.29,East,90,4.0,4.0,0,0.00,,,0.00,meteohub,2013-02-25 22:49:00,
2013-02-25 17:50:00,37.9,37.9,30.28,East,90,4.0,4.0,0,0.00,,,0.00,meteohub,2013-02-25 22:50:00,
2013-02-25 17:52:00,37.9,37.9,30.29,East,90,4.0,5.0,0,0.00,,,0.00,meteohub,2013-02-25 22:52:00,
2013-02-25 17:53:00,37.9,37.9,30.28,East,90,4.0,5.0,0,0.00,,,0.00,meteohub,2013-02-25 22:53:00,
2013-02-25 17:55:00,37.2,37.2,30.29,East,90,3.0,5.0,0,0.00,,,0.00,meteohub,2013-02-25 22:55:00,
2013-02-25 17:56:00,37.0,37.0,30.28,East,90,3.0,5.0,0,0.00,,,0.00,meteohub,2013-02-25 22:56:00,
2013-02-25 17:57:00,37.0,37.0,30.28,East,90,4.0,5.0,0,0.00,,,0.00,meteohub,2013-02-25 22:57:00,
2013-02-25 17:59:00,36.9,36.9,30.28,East,90,2.0,5.0,0,0.00,,,0.00,meteohub,2013-02-25 22:59:00,
2013-02-25 18:01:00,36.9,36.9,30.28,East,90,2.0,5.0,0,0.00,,,0.00,meteohub,2013-02-25 23:01:00,
2013-02-25 18:02:00,36.9,36.9,30.29,East,90,2.0,5.0,0,0.00,,,0.00,meteohub,2013-02-25 23:02:00,
2013-02-25 18:03:00,36.9,36.9,30.29,East,90,2.0,5.0,0,0.00,,,0.00,meteohub,2013-02-25 23:03:00,
2013-02-25 18:04:00,36.9,36.9,30.29,East,90,2.0,5.0,0,0.00,,,0.00,meteohub,2013-02-25 23:04:00,
2013-02-25 18:07:00,36.9,36.9,30.29,East,90,2.0,4.0,0,0.00,,,0.00,meteohub,2013-02-25 23:07:00,
2013-02-25 18:08:00,36.3,36.3,30.28,NE,45,4.0,4.0,0,0.00,,,0.00,meteohub,2013-02-25 23:08:00,
2013-02-25 18:09:00,36.3,36.3,30.28,NE,45,4.0,4.0,0,0.00,,,0.00,meteohub,2013-02-25 23:09:00,
2013-02-25 18:12:00,36.1,36.1,30.29,SE,135,4.0,4.0,0,0.00,,,0.00,meteohub,2013-02-25 23:12:00,
2013-02-25 18:14:00,36.0,36.0,30.29,East,90,2.0,4.0,0,0.00,,,0.00,meteohub,2013-02-25 23:14:00,
2013-02-25 18:15:00,35.8,35.8,30.29,East,90,2.0,4.0,0,0.00,,,0.00,meteohub,2013-02-25 23:15:00,
2013-02-25 18:17:00,35.8,35.8,30.28,East,90,4.0,4.0,0,0.00,,,0.00,meteohub,2013-02-25 23:17:00,
2013-02-25 18:20:00,35.6,35.6,30.29,SE,135,2.0,4.0,0,0.00,,,0.00,meteohub,2013-02-25 23:20:00,
2013-02-25 18:23:00,35.4,35.4,30.29,East,90,2.0,4.0,0,0.00,,,0.00,meteohub,2013-02-25 23:23:00,
2013-02-25 18:25:00,35.2,35.2,30.30,SE,135,2.0,4.0,0,0.00,,,0.00,meteohub,2013-02-25 23:25:00,
2013-02-25 18:26:00,35.2,35.2,30.29,East,90,2.0,4.0,0,0.00,,,0.00,meteohub,2013-02-25 23:26:00,
2013-02-25 18:27:00,35.2,35.2,30.29,East,90,2.0,4.0,0,0.00,,,0.00,meteohub,2013-02-25 23:27:00,
2013-02-25 18:28:00,35.2,35.2,30.29,East,90,2.0,4.0,0,0.00,,,0.00,meteohub,2013-02-25 23:28:00,
2013-02-25 18:30:00,35.1,35.1,30.29,East,90,3.0,4.0,0,0.00,,,0.00,meteohub,2013-02-25 23:30:00,
2013-02-25 18:33:00,35.1,35.1,30.29,East,90,2.0,4.0,0,0.00,,,0.00,meteohub,2013-02-25 23:33:00,
2013-02-25 18:34:00,35.1,35.1,30.29,East,90,4.0,4.0,0,0.00,,,0.00,meteohub,2013-02-25 23:34:00,
2013-02-25 18:36:00,35.1,35.1,30.29,East,90,3.0,3.0,0,0.00,,,0.00,meteohub,2013-02-25 23:36:00,
2013-02-25 18:39:00,35.1,35.1,30.29,East,90,4.0,4.0,0,0.00,,,0.00,meteohub,2013-02-25 23:39:00,
2013-02-25 18:41:00,35.1,35.1,30.28,East,90,3.0,4.0,0,0.00,,,0.00,meteohub,2013-02-25 23:41:00,
2013-02-25 18:42:00,35.1,35.1,30.28,East,90,4.0,4.0,0,0.00,,,0.00,meteohub,2013-02-25 23:42:00,
2013-02-25 18:45:00,35.1,35.1,30.29,East,90,3.0,4.0,0,0.00,,,0.00,meteohub,2013-02-25 23:45:00,
2013-02-25 18:47:00,35.1,35.1,30.29,East,90,3.0,5.0,0,0.00,,,0.00,meteohub,2013-02-25 23:47:00,
2013-02-25 18:48:00,35.1,35.1,30.29,SE,135,4.0,5.0,0,0.00,,,0.00,meteohub,2013-02-25 23:48:00,
2013-02-25 18:52:00,34.9,34.9,30.29,East,90,3.0,5.0,0,0.00,,,0.00,meteohub,2013-02-25 23:52:00,
2013-02-25 18:53:00,34.9,34.9,30.29,East,90,3.0,5.0,0,0.00,,,0.00,meteohub,2013-02-25 23:53:00,
2013-02-25 18:55:00,34.7,34.7,30.29,East,90,4.0,5.0,0,0.00,,,0.00,meteohub,2013-02-25 23:55:00,
2013-02-25 18:56:00,34.7,34.7,30.29,East,90,4.0,5.0,0,0.00,,,0.00,meteohub,2013-02-25 23:56:00,
2013-02-25 18:58:00,34.7,34.7,30.29,East,90,4.0,5.0,0,0.00,,,0.00,meteohub,2013-02-25 23:58:00,
2013-02-25 18:59:00,34.7,34.7,30.30,East,90,3.0,5.0,0,0.00,,,0.00,meteohub,2013-02-25 23:59:00,
2013-02-25 19:01:00,34.7,34.7,30.29,East,90,3.0,4.0,0,0.00,,,0.00,meteohub,2013-02-26 00:01:00,
2013-02-25 19:03:00,34.7,34.7,30.30,East,90,3.0,4.0,0,0.00,,,0.00,meteohub,2013-02-26 00:03:00,
2013-02-25 19:04:00,34.7,34.7,30.30,East,90,3.0,4.0,0,0.00,,,0.00,meteohub,2013-02-26 00:04:00,
2013-02-25 19:06:00,34.7,34.7,30.30,East,90,4.0,4.0,0,0.00,,,0.00,meteohub,2013-02-26 00:06:00,
2013-02-25 19:10:00,34.7,34.7,30.30,East,90,3.0,4.0,0,0.00,,,0.00,meteohub,2013-02-26 00:10:00,
2013-02-25 19:11:00,34.5,34.5,30.29,East,90,4.0,4.0,0,0.00,,,0.00,meteohub,2013-02-26 00:11:00,
2013-02-25 19:12:00,34.5,34.5,30.30,East,90,3.0,4.0,0,0.00,,,0.00,meteohub,2013-02-26 00:12:00,
2013-02-25 19:15:00,34.5,34.5,30.30,SE,135,3.0,4.0,0,0.00,,,0.00,meteohub,2013-02-26 00:15:00,
2013-02-25 19:16:00,34.5,34.5,30.30,East,90,4.0,4.0,0,0.00,,,0.00,meteohub,2013-02-26 00:16:00,
2013-02-25 19:18:00,34.5,34.5,30.29,East,90,3.0,4.0,0,0.00,,,0.00,meteohub,2013-02-26 00:18:00,
2013-02-25 19:19:00,34.5,34.5,30.30,East,90,3.0,4.0,0,0.00,,,0.00,meteohub,2013-02-26 00:19:00,
2013-02-25 19:20:00,34.5,34.5,30.30,ESE,113,2.0,4.0,0,0.00,,,0.00,meteohub,2013-02-26 00:20:00,
2013-02-25 19:21:00,34.3,34.3,30.30,East,90,3.0,4.0,0,0.00,,,0.00,meteohub,2013-02-26 00:21:00,
2013-02-25 19:24:00,34.3,34.3,30.30,East,90,4.0,4.0,0,0.00,,,0.00,meteohub,2013-02-26 00:24:00,
2013-02-25 19:27:00,34.2,34.2,30.29,East,90,4.0,4.0,0,0.00,,,0.00,meteohub,2013-02-26 00:27:00,
2013-02-25 19:29:00,34.2,34.2,30.30,East,90,4.0,4.0,0,0.00,,,0.00,meteohub,2013-02-26 00:29:00,
2013-02-25 19:32:00,34.2,34.2,30.29,SE,135,4.0,4.0,0,0.00,,,0.00,meteohub,2013-02-26 00:32:00,
2013-02-25 19:33:00,34.2,34.2,30.29,SE,135,4.0,4.0,0,0.00,,,0.00,meteohub,2013-02-26 00:33:00,
2013-02-25 19:34:00,34.2,34.2,30.29,East,90,4.0,4.0,0,0.00,,,0.00,meteohub,2013-02-26 00:34:00,
2013-02-25 19:37:00,34.2,34.2,30.29,SE,135,4.0,4.0,0,0.00,,,0.00,meteohub,2013-02-26 00:37:00,
2013-02-25 19:38:00,34.2,34.2,30.29,ESE,113,3.0,4.0,0,0.00,,,0.00,meteohub,2013-02-26 00:38:00,
2013-02-25 19:40:00,34.0,34.0,30.29,East,90,4.0,4.0,0,0.00,,,0.00,meteohub,2013-02-26 00:40:00,
2013-02-25 19:42:00,34.0,34.0,30.29,SE,135,4.0,4.0,0,0.00,,,0.00,meteohub,2013-02-26 00:42:00,
2013-02-25 19:45:00,34.0,34.0,30.29,East,90,4.0,4.0,0,0.00,,,0.00,meteohub,2013-02-26 00:45:00,
2013-02-25 19:46:00,33.8,33.8,30.29,East,90,4.0,4.0,0,0.00,,,0.00,meteohub,2013-02-26 00:46:00,
2013-02-25 19:48:00,33.8,33.8,30.29,East,90,4.0,4.0,0,0.00,,,0.00,meteohub,2013-02-26 00:48:00,
2013-02-25 19:50:00,33.8,33.8,30.29,East,90,4.0,4.0,0,0.00,,,0.00,meteohub,2013-02-26 00:50:00,
2013-02-25 19:51:00,33.8,33.8,30.29,East,90,4.0,4.0,0,0.00,,,0.00,meteohub,2013-02-26 00:51:00,
2013-02-25 19:53:00,33.8,33.8,30.29,East,90,5.0,5.0,0,0.00,,,0.00,meteohub,2013-02-26 00:53:00,
2013-02-25 19:56:00,33.8,33.8,30.29,SE,135,3.0,5.0,0,0.00,,,0.00,meteohub,2013-02-26 00:56:00,
2013-02-25 19:58:00,33.6,33.6,30.29,SE,135,3.0,5.0,0,0.00,,,0.00,meteohub,2013-02-26 00:58:00,
2013-02-25 20:01:00,33.4,33.4,30.28,East,90,6.0,6.0,0,0.00,,,0.00,meteohub,2013-02-26 01:01:00,
2013-02-25 20:02:00,33.6,33.6,30.28,East,90,4.0,5.0,0,0.00,,,0.00,meteohub,2013-02-26 01:02:00,
2013-02-25 20:04:00,33.6,33.6,30.29,East,90,4.0,5.0,0,0.00,,,0.00,meteohub,2013-02-26 01:04:00,
2013-02-25 20:06:00,33.6,33.6,30.28,East,90,5.0,6.0,0,0.00,,,0.00,meteohub,2013-02-26 01:06:00,
2013-02-25 20:07:00,33.6,33.6,30.28,East,90,5.0,6.0,0,0.00,,,0.00,meteohub,2013-02-26 01:07:00,
2013-02-25 20:08:00,33.6,33.6,30.28,East,90,5.0,6.0,0,0.00,,,0.00,meteohub,2013-02-26 01:08:00,
2013-02-25 20:09:00,33.6,33.6,30.28,East,90,4.0,6.0,0,0.00,,,0.00,meteohub,2013-02-26 01:09:00,
2013-02-25 20:12:00,33.6,33.6,30.29,East,90,4.0,6.0,0,0.00,,,0.00,meteohub,2013-02-26 01:12:00,
2013-02-25 20:13:00,33.6,33.6,30.29,East,90,4.0,6.0,0,0.00,,,0.00,meteohub,2013-02-26 01:13:00,
2013-02-25 20:14:00,33.6,33.6,30.29,East,90,4.0,6.0,0,0.00,,,0.00,meteohub,2013-02-26 01:14:00,
2013-02-25 20:17:00,33.6,33.6,30.28,ESE,113,5.0,6.0,0,0.00,,,0.00,meteohub,2013-02-26 01:17:00,
2013-02-25 20:18:00,33.6,33.6,30.29,ESE,113,5.0,6.0,0,0.00,,,0.00,meteohub,2013-02-26 01:18:00,
2013-02-25 20:19:00,33.6,33.6,30.29,SE,135,4.0,6.0,0,0.00,,,0.00,meteohub,2013-02-26 01:19:00,
2013-02-25 20:20:00,33.6,33.6,30.29,East,90,4.0,6.0,0,0.00,,,0.00,meteohub,2013-02-26 01:20:00,
2013-02-25 20:23:00,33.6,33.6,30.29,SE,135,5.0,5.0,0,0.00,,,0.00,meteohub,2013-02-26 01:23:00,
2013-02-25 20:24:00,33.6,33.6,30.28,East,90,4.0,5.0,0,0.00,,,0.00,meteohub,2013-02-26 01:24:00,
2013-02-25 20:25:00,33.6,33.6,30.29,SE,135,4.0,5.0,0,0.00,,,0.00,meteohub,2013-02-26 01:25:00,
2013-02-25 20:29:00,33.6,33.6,30.29,East,90,4.0,7.0,0,0.00,,,0.00,meteohub,2013-02-26 01:29:00,
2013-02-25 20:30:00,33.6,33.6,30.29,SE,135,5.0,7.0,0,0.00,,,0.00,meteohub,2013-02-26 01:30:00,
2013-02-25 20:31:00,33.4,33.4,30.29,SE,135,4.0,7.0,0,0.00,,,0.00,meteohub,2013-02-26 01:31:00,
2013-02-25 20:34:00,33.4,33.4,30.29,SE,135,4.0,7.0,0,0.00,,,0.00,meteohub,2013-02-26 01:34:00,
2013-02-25 20:36:00,33.4,33.4,30.28,SE,135,5.0,7.0,0,0.00,,,0.00,meteohub,2013-02-26 01:36:00,
2013-02-25 20:39:00,33.3,33.3,30.29,East,90,4.0,7.0,0,0.00,,,0.00,meteohub,2013-02-26 01:39:00,
2013-02-25 20:41:00,33.3,33.3,30.29,East,90,6.0,6.0,0,0.00,,,0.00,meteohub,2013-02-26 01:41:00,
2013-02-25 20:42:00,33.3,33.3,30.28,East,90,4.0,5.0,0,0.00,,,0.00,meteohub,2013-02-26 01:42:00,
2013-02-25 20:44:00,33.4,33.4,30.28,East,90,4.0,5.0,0,0.00,,,0.00,meteohub,2013-02-26 01:44:00,
2013-02-25 20:46:00,33.4,33.4,30.28,East,90,5.0,7.0,0,0.00,,,0.00,meteohub,2013-02-26 01:46:00,
2013-02-25 20:47:00,33.4,33.4,30.28,East,90,4.0,7.0,0,0.00,,,0.00,meteohub,2013-02-26 01:47:00,
2013-02-25 20:48:00,33.4,33.4,30.28,East,90,4.0,7.0,0,0.00,,,0.00,meteohub,2013-02-26 01:48:00,
2013-02-25 20:50:00,33.4,33.4,30.28,East,90,4.0,7.0,0,0.00,,,0.00,meteohub,2013-02-26 01:50:00,
2013-02-25 20:52:00,33.4,33.4,30.28,East,90,4.0,7.0,0,0.00,,,0.00,meteohub,2013-02-26 01:52:00,
2013-02-25 20:53:00,33.4,33.4,30.28,East,90,4.0,7.0,0,0.00,,,0.00,meteohub,2013-02-26 01:53:00,
2013-02-25 20:55:00,33.3,33.3,30.28,East,90,4.0,7.0,0,0.00,,,0.00,meteohub,2013-02-26 01:55:00,
2013-02-25 20:57:00,33.3,33.3,30.28,East,90,4.0,7.0,0,0.00,,,0.00,meteohub,2013-02-26 01:57:00,
2013-02-25 20:58:00,33.3,33.3,30.28,East,90,4.0,7.0,0,0.00,,,0.00,meteohub,2013-02-26 01:58:00,
2013-02-25 20:59:00,33.3,33.3,30.28,East,90,4.0,7.0,0,0.00,,,0.00,meteohub,2013-02-26 01:59:00,
2013-02-25 21:00:00,33.3,33.3,30.28,SE,135,4.0,5.0,0,0.00,,,0.00,meteohub,2013-02-26 02:00:00,
2013-02-25 21:03:00,33.1,33.1,30.28,SE,135,5.0,5.0,0,0.00,,,0.00,meteohub,2013-02-26 02:03:00,
2013-02-25 21:04:00,33.1,33.1,30.28,East,90,4.0,5.0,0,0.00,,,0.00,meteohub,2013-02-26 02:04:00,
2013-02-25 21:06:00,33.1,33.1,30.28,East,90,5.0,5.0,0,0.00,,,0.00,meteohub,2013-02-26 02:06:00,
2013-02-25 21:08:00,33.1,33.1,30.29,East,90,6.0,6.0,0,0.00,,,0.00,meteohub,2013-02-26 02:08:00,
2013-02-25 21:09:00,33.1,33.1,30.29,East,90,6.0,6.0,0,0.00,,,0.00,meteohub,2013-02-26 02:09:00,
2013-02-25 21:12:00,33.1,33.1,30.29,SE,135,4.0,5.0,0,0.00,,,0.00,meteohub,2013-02-26 02:12:00,
2013-02-25 21:14:00,33.1,33.1,30.29,SE,135,5.0,5.0,0,0.00,,,0.00,meteohub,2013-02-26 02:14:00,
2013-02-25 21:17:00,33.1,33.1,30.29,East,90,4.0,6.0,0,0.00,,,0.00,meteohub,2013-02-26 02:17:00,
2013-02-25 21:19:00,33.1,33.1,30.29,East,90,4.0,6.0,0,0.00,,,0.00,meteohub,2013-02-26 02:19:00,
2013-02-25 21:20:00,33.1,33.1,30.29,East,90,4.0,6.0,0,0.00,,,0.00,meteohub,2013-02-26 02:20:00,
2013-02-25 21:22:00,33.1,33.1,30.29,East,90,4.0,6.0,0,0.00,,,0.00,meteohub,2013-02-26 02:22:00,
2013-02-25 21:24:00,32.9,32.9,30.29,East,90,6.0,6.0,0,0.00,,,0.00,meteohub,2013-02-26 02:24:00,
2013-02-25 21:25:00,33.1,33.1,30.29,East,90,5.0,6.0,0,0.00,,,0.00,meteohub,2013-02-26 02:25:00,
2013-02-25 21:26:00,32.9,32.9,30.29,SE,135,5.0,5.0,0,0.00,,,0.00,meteohub,2013-02-26 02:26:00,
2013-02-25 21:28:00,32.9,32.9,30.29,East,90,4.0,5.0,0,0.00,,,0.00,meteohub,2013-02-26 02:28:00,
2013-02-25 21:29:00,32.9,32.9,30.29,East,90,5.0,5.0,0,0.00,,,0.00,meteohub,2013-02-26 02:29:00,
2013-02-25 21:31:00,32.9,32.9,30.28,ESE,113,4.0,6.0,0,0.00,,,0.00,meteohub,2013-02-26 02:31:00,
2013-02-25 21:32:00,32.9,32.9,30.28,ESE,113,4.0,6.0,0,0.00,,,0.00,meteohub,2013-02-26 02:32:00,
2013-02-25 21:34:00,32.9,32.9,30.28,East,90,4.0,6.0,0,0.00,,,0.00,meteohub,2013-02-26 02:34:00,
2013-02-25 21:36:00,32.9,32.9,30.28,East,90,6.0,6.0,0,0.00,,,0.00,meteohub,2013-02-26 02:36:00,
2013-02-25 21:37:00,32.9,32.9,30.27,East,90,5.0,6.0,0,0.00,,,0.00,meteohub,2013-02-26 02:37:00,
2013-02-25 21:40:00,32.9,32.9,30.28,SE,135,5.0,6.0,0,0.00,,,0.00,meteohub,2013-02-26 02:40:00,
2013-02-25 21:41:00,32.9,32.9,30.28,SE,135,4.0,6.0,0,0.00,,,0.00,meteohub,2013-02-26 02:41:00,
2013-02-25 21:43:00,32.9,32.9,30.28,East,90,6.0,6.0,0,0.00,,,0.00,meteohub,2013-02-26 02:43:00,
2013-02-25 21:45:00,32.9,32.9,30.28,East,90,5.0,6.0,0,0.00,,,0.00,meteohub,2013-02-26 02:45:00,
2013-02-25 21:46:00,32.9,32.9,30.27,East,90,6.0,6.0,0,0.00,,,0.00,meteohub,2013-02-26 02:46:00,
2013-02-25 21:47:00,32.9,32.9,30.27,East,90,8.0,8.0,0,0.00,,,0.00,meteohub,2013-02-26 02:47:00,
2013-02-25 21:49:00,32.9,32.9,30.28,SE,135,5.0,6.0,0,0.00,,,0.00,meteohub,2013-02-26 02:49:00,
2013-02-25 21:50:00,32.9,32.9,30.27,SE,135,5.0,8.0,0,0.00,,,0.00,meteohub,2013-02-26 02:50:00,
2013-02-25 21:52:00,32.9,32.9,30.27,SE,135,5.0,8.0,0,0.00,,,0.00,meteohub,2013-02-26 02:52:00,
2013-02-25 21:55:00,32.9,32.9,30.27,East,90,6.0,8.0,0,0.00,,,0.00,meteohub,2013-02-26 02:55:00,
2013-02-25 21:56:00,32.9,32.9,30.27,East,90,6.0,8.0,0,0.00,,,0.00,meteohub,2013-02-26 02:56:00,
2013-02-25 21:57:00,32.9,32.9,30.28,SE,135,6.0,8.0,0,0.00,,,0.00,meteohub,2013-02-26 02:57:00,
2013-02-25 22:01:00,33.1,33.1,30.27,SE,135,5.0,9.0,0,0.00,,,0.00,meteohub,2013-02-26 03:01:00,
2013-02-25 22:02:00,32.9,32.9,30.27,SE,135,7.0,9.0,0,0.00,,,0.00,meteohub,2013-02-26 03:02:00,
2013-02-25 22:06:00,32.9,32.9,30.27,East,90,7.0,9.0,0,0.00,,,0.00,meteohub,2013-02-26 03:06:00,
2013-02-25 22:07:00,32.9,32.9,30.27,East,90,7.0,9.0,0,0.00,,,0.00,meteohub,2013-02-26 03:07:00,
2013-02-25 22:08:00,32.9,32.9,30.27,ESE,113,6.0,9.0,0,0.00,,,0.00,meteohub,2013-02-26 03:08:00,
2013-02-25 22:12:00,33.1,33.1,30.26,East,90,6.0,9.0,0,0.00,,,0.00,meteohub,2013-02-26 03:12:00,
2013-02-25 22:13:00,33.1,33.1,30.26,East,90,6.0,9.0,0,0.00,,,0.00,meteohub,2013-02-26 03:13:00,
2013-02-25 22:14:00,33.1,33.1,30.26,SE,135,5.0,9.0,0,0.00,,,0.00,meteohub,2013-02-26 03:14:00,
2013-02-25 22:17:00,33.1,33.1,30.26,East,90,7.0,9.0,0,0.00,,,0.00,meteohub,2013-02-26 03:17:00,
2013-02-25 22:18:00,33.1,33.1,30.26,East,90,7.0,9.0,0,0.00,,,0.00,meteohub,2013-02-26 03:18:00,
2013-02-25 22:19:00,33.1,33.1,30.26,East,90,7.0,9.0,0,0.00,,,0.00,meteohub,2013-02-26 03:19:00,
2013-02-25 22:20:00,33.1,33.1,30.26,East,90,7.0,9.0,0,0.00,,,0.00,meteohub,2013-02-26 03:20:00,
2013-02-25 22:24:00,33.1,33.1,30.25,SE,135,7.0,9.0,0,0.00,,,0.00,meteohub,2013-02-26 03:24:00,
2013-02-25 22:25:00,33.1,33.1,30.25,East,90,7.0,9.0,0,0.00,,,0.00,meteohub,2013-02-26 03:25:00,
2013-02-25 22:26:00,33.1,33.1,30.25,East,90,8.0,8.0,0,0.00,,,0.00,meteohub,2013-02-26 03:26:00,
2013-02-25 22:29:00,33.1,33.1,30.25,East,90,6.0,8.0,0,0.00,,,0.00,meteohub,2013-02-26 03:29:00,
2013-02-25 22:30:00,33.1,33.1,30.25,East,90,10.0,10.0,0,0.00,,,0.00,meteohub,2013-02-26 03:30:00,
2013-02-25 22:32:00,33.1,33.1,30.25,East,90,8.0,8.0,0,0.00,,,0.00,meteohub,2013-02-26 03:32:00,
2013-02-25 22:35:00,33.1,33.1,30.25,East,90,9.0,9.0,0,0.00,,,0.00,meteohub,2013-02-26 03:35:00,
2013-02-25 22:37:00,33.1,33.1,30.24,SE,135,8.0,10.0,0,0.00,,,0.00,meteohub,2013-02-26 03:37:00,
2013-02-25 22:40:00,33.1,33.1,30.23,SE,135,5.0,10.0,0,0.00,,,0.00,meteohub,2013-02-26 03:40:00,
2013-02-25 22:43:00,33.1,33.1,30.23,East,90,9.0,10.0,0,0.00,,,0.00,meteohub,2013-02-26 03:43:00,
2013-02-25 22:45:00,32.9,32.9,30.24,SE,135,9.0,10.0,0,0.00,,,0.00,meteohub,2013-02-26 03:45:00,
2013-02-25 22:46:00,32.9,32.9,30.24,South,180,8.0,11.0,0,0.00,,,0.00,meteohub,2013-02-26 03:46:00,
2013-02-25 22:48:00,33.1,33.1,30.24,SE,135,8.0,11.0,0,0.00,,,0.00,meteohub,2013-02-26 03:48:00,
2013-02-25 22:50:00,33.1,33.1,30.24,SE,135,7.0,11.0,0,0.00,,,0.00,meteohub,2013-02-26 03:50:00,
2013-02-25 22:51:00,33.1,33.1,30.25,SE,135,8.0,11.0,0,0.00,,,0.00,meteohub,2013-02-26 03:51:00,
2013-02-25 22:53:00,32.9,32.9,30.25,SE,135,6.0,11.0,0,0.00,,,0.00,meteohub,2013-02-26 03:53:00,
2013-02-25 22:55:00,32.9,32.9,30.25,East,90,8.0,11.0,0,0.00,,,0.00,meteohub,2013-02-26 03:55:00,
2013-02-25 22:57:00,32.9,32.9,30.24,East,90,7.0,11.0,0,0.00,,,0.00,meteohub,2013-02-26 03:57:00,
2013-02-25 22:59:00,32.7,32.7,30.24,SE,135,8.0,11.0,0,0.00,,,0.00,meteohub,2013-02-26 03:59:00,
2013-02-25 23:01:00,32.7,32.7,30.23,East,90,7.0,10.0,0,0.00,,,0.00,meteohub,2013-02-26 04:01:00,
2013-02-25 23:02:00,32.7,32.7,30.23,East,90,7.0,10.0,0,0.00,,,0.00,meteohub,2013-02-26 04:02:00,
2013-02-25 23:04:00,32.7,32.7,30.23,East,90,7.0,10.0,0,0.00,,,0.00,meteohub,2013-02-26 04:04:00,
2013-02-25 23:06:00,32.7,32.7,30.23,East,90,7.0,8.0,0,0.00,,,0.00,meteohub,2013-02-26 04:06:00,
2013-02-25 23:07:00,32.7,32.7,30.24,East,90,7.0,8.0,0,0.00,,,0.00,meteohub,2013-02-26 04:07:00,
2013-02-25 23:11:00,32.5,32.5,30.25,East,90,10.0,10.0,0,0.00,,,0.00,meteohub,2013-02-26 04:11:00,
2013-02-25 23:12:00,32.7,32.7,30.25,SE,135,7.0,9.0,0,0.00,,,0.00,meteohub,2013-02-26 04:12:00,
2013-02-25 23:13:00,32.7,32.7,30.25,ENE,68,5.0,9.0,0,0.00,,,0.00,meteohub,2013-02-26 04:13:00,
2013-02-25 23:16:00,32.5,32.5,30.25,East,90,6.0,10.0,0,0.00,,,0.00,meteohub,2013-02-26 04:16:00,
2013-02-25 23:17:00,32.5,32.5,30.25,SE,135,7.0,10.0,0,0.00,,,0.00,meteohub,2013-02-26 04:17:00,
2013-02-25 23:18:00,32.5,32.5,30.25,East,90,8.0,10.0,0,0.00,,,0.00,meteohub,2013-02-26 04:18:00,
2013-02-25 23:21:00,31.1,31.1,30.25,East,90,6.0,10.0,0,0.00,,,0.00,meteohub,2013-02-26 04:21:00,
2013-02-25 23:23:00,32.5,32.5,30.26,East,90,6.0,10.0,0,0.00,,,0.00,meteohub,2013-02-26 04:23:00,
2013-02-25 23:24:00,32.5,32.5,30.26,East,90,8.0,10.0,0,0.00,,,0.00,meteohub,2013-02-26 04:24:00,
2013-02-25 23:25:00,32.5,32.5,30.26,East,90,7.0,10.0,0,0.00,,,0.00,meteohub,2013-02-26 04:25:00,
2013-02-25 23:26:00,32.5,32.5,30.26,SE,135,8.0,10.0,0,0.00,,,0.00,meteohub,2013-02-26 04:26:00,
2013-02-25 23:28:00,32.5,32.5,30.26,SE,135,6.0,10.0,0,0.00,,,0.00,meteohub,2013-02-26 04:28:00,
2013-02-25 23:29:00,32.5,32.5,30.27,SE,135,6.0,10.0,0,0.00,,,0.00,meteohub,2013-02-26 04:29:00,
2013-02-25 23:31:00,32.5,32.5,30.26,East,90,6.0,8.0,0,0.00,,,0.00,meteohub,2013-02-26 04:31:00,
2013-02-25 23:35:00,32.5,32.5,30.26,ESE,113,7.0,8.0,0,0.00,,,0.00,meteohub,2013-02-26 04:35:00,
2013-02-25 23:36:00,32.5,32.5,30.26,SE,135,13.0,13.0,0,0.00,,,0.00,meteohub,2013-02-26 04:36:00,
2013-02-25 23:37:00,32.5,32.5,30.26,SE,135,13.0,13.0,0,0.00,,,0.00,meteohub,2013-02-26 04:37:00,
2013-02-25 23:40:00,32.5,32.5,30.27,SE,135,6.0,8.0,0,0.00,,,0.00,meteohub,2013-02-26 04:40:00,
2013-02-25 23:42:00,32.7,32.7,30.26,SE,135,7.0,13.0,0,0.00,,,0.00,meteohub,2013-02-26 04:42:00,
2013-02-25 23:45:00,32.7,32.7,30.26,SSW,203,8.0,13.0,0,0.00,,,0.00,meteohub,2013-02-26 04:45:00,
2013-02-25 23:46:00,32.7,32.7,30.26,SE,135,8.0,13.0,0,0.00,,,0.00,meteohub,2013-02-26 04:46:00,
2013-02-25 23:48:00,32.7,32.7,30.26,SE,135,7.0,13.0,0,0.00,,,0.00,meteohub,2013-02-26 04:48:00,
2013-02-25 23:51:00,32.9,32.9,30.26,South,180,15.0,15.0,0,0.00,,,0.00,meteohub,2013-02-26 04:51:00,
2013-02-25 23:53:00,32.9,32.9,30.25,SE,135,8.0,13.0,0,0.00,,,0.00,meteohub,2013-02-26 04:53:00,
2013-02-25 23:57:00,32.9,32.9,30.25,SE,135,8.0,15.0,0,0.00,,,0.00,meteohub,2013-02-26 04:57:00,
2013-02-25 23:58:00,32.9,32.9,30.25,SE,135,8.0,15.0,0,0.00,,,0.00,meteohub,2013-02-26 04:58:00,
2013-02-25 23:59:00,32.9,32.9,30.25,East,90,11.0,15.0,0,0.00,,,0.00,meteohub,2013-02-26 04:59:00,